| time (UTC) | temp C | wind direction | speed KPH | gust KPH | rain 1hr cm | rain 24hr cm | rain mn cm | humidity % | barometer mb |
| 20260906235017 | 13 | 180 | 0.0 | 0.0 | 0.00 | 0.00 | 0.00 | 83 | 1065.1 |
| 20260906234910 | 13 | 157 | 0.0 | 0.0 | 0.00 | 0.00 | 0.00 | 83 | 1065.1 |
| 20260906234757 | 13 | 157 | 0.0 | 0.0 | 0.00 | 0.00 | 0.00 | 83 | 1065.1 |
| 20260906234652 | 13 | 157 | 0.0 | 0.0 | 0.00 | 0.00 | 0.00 | 83 | 1065.2 |
| 20260906234538 | 13 | 157 | 0.0 | 0.0 | 0.00 | 0.00 | 0.00 | 83 | 1065.2 |
| 20260906234418 | 13 | 157 | 0.0 | 0.0 | 0.00 | 0.00 | 0.00 | 83 | 1065.2 |
| 20260906234305 | 13 | 135 | 0.0 | 0.0 | 0.00 | 0.00 | 0.00 | 83 | 1065.1 |
| 20260906234143 | 13 | 135 | 0.0 | 0.0 | 0.00 | 0.00 | 0.00 | 83 | 1065.2 |
| 20260906234023 | 13 | 112 | 0.0 | 0.0 | 0.00 | 0.00 | 0.00 | 83 | 1065.2 |
| 20260906233917 | 13 | 157 | 0.0 | 0.0 | 0.00 | 0.00 | 0.00 | 83 | 1065.2 |
| 20260906233748 | 13 | 135 | 0.0 | 0.0 | 0.00 | 0.00 | 0.00 | 83 | 1065.2 |
| 20260906233627 | 13 | 157 | 0.0 | 0.0 | 0.00 | 0.00 | 0.00 | 83 | 1065.2 |
| 20260906233522 | 13 | 157 | 0.0 | 0.0 | 0.00 | 0.00 | 0.00 | 83 | 1065.2 |
| 20260906233400 | 13 | 157 | 0.0 | 0.0 | 0.00 | 0.00 | 0.00 | 83 | 1065.2 |
| 20260906233247 | 13 | 157 | 0.0 | 0.0 | 0.00 | 0.00 | 0.00 | 83 | 1065.2 |
| 20260906233127 | 13 | 157 | 0.0 | 0.0 | 0.00 | 0.00 | 0.00 | 83 | 1065.3 |
| 20260906233020 | 13 | 157 | 0.0 | 0.0 | 0.00 | 0.00 | 0.00 | 83 | 1065.2 |
| 20260906232859 | 13 | 157 | 0.0 | 0.0 | 0.00 | 0.00 | 0.00 | 82 | 1065.2 |
| 20260906232747 | 13 | 157 | 0.0 | 0.0 | 0.00 | 0.00 | 0.00 | 82 | 1065.3 |
| 20260906232636 | 13 | 157 | 0.0 | 0.0 | 0.00 | 0.00 | 0.00 | 82 | 1065.3 |
| 20260906232528 | 13 | 157 | 0.0 | 0.0 | 0.00 | 0.00 | 0.00 | 82 | 1065.3 |
| 20260906232406 | 13 | 157 | 0.0 | 0.0 | 0.00 | 0.00 | 0.00 | 82 | 1065.3 |
| 20260906232237 | 13 | 157 | 0.0 | 0.0 | 0.00 | 0.00 | 0.00 | 82 | 1065.4 |
| 20260906232125 | 13 | 157 | 0.0 | 0.0 | 0.00 | 0.00 | 0.00 | 82 | 1065.3 |
| 20260906232020 | 13 | 157 | 0.0 | 0.0 | 0.00 | 0.00 | 0.00 | 82 | 1065.4 |
| 20260906231907 | 13 | 157 | 0.0 | 0.0 | 0.00 | 0.00 | 0.00 | 82 | 1065.3 |
| 20260906231745 | 13 | 157 | 0.0 | 0.0 | 0.00 | 0.00 | 0.00 | 82 | 1065.4 |
| 20260906231632 | 13 | 157 | 0.0 | 0.0 | 0.00 | 0.00 | 0.00 | 82 | 1065.4 |
| 20260906231528 | 13 | 157 | 0.0 | 0.0 | 0.00 | 0.00 | 0.00 | 82 | 1065.4 |
| 20260906231422 | 13 | 157 | 0.0 | 0.0 | 0.00 | 0.00 | 0.00 | 82 | 1065.4 |
| 20260906231317 | 13 | 180 | 0.0 | 0.0 | 0.00 | 0.00 | 0.00 | 82 | 1065.4 |
| 20260906231155 | 13 | 180 | 0.0 | 0.0 | 0.00 | 0.00 | 0.00 | 82 | 1065.4 |
| 20260906231034 | 13 | 157 | 4.8 | 0.0 | 0.00 | 0.00 | 0.00 | 82 | 1065.3 |
| 20260906230921 | 13 | 157 | 0.0 | 0.0 | 0.00 | 0.00 | 0.00 | 82 | 1065.4 |
| 20260906230809 | 13 | 157 | 0.0 | 0.0 | 0.00 | 0.00 | 0.00 | 82 | 1065.4 |
| 20260906230703 | 13 | 157 | 0.0 | 0.0 | 0.00 | 0.00 | 0.00 | 82 | 1065.4 |
| 20260906230550 | 13 | 157 | 0.0 | 0.0 | 0.00 | 0.00 | 0.00 | 82 | 1065.3 |
| 20260906230428 | 13 | 157 | 0.0 | 0.0 | 0.00 | 0.00 | 0.00 | 82 | 1065.4 |
| 20260906230300 | 13 | 157 | 0.0 | 0.0 | 0.00 | 0.00 | 0.00 | 82 | 1065.5 |
| 20260906230154 | 13 | 157 | 0.0 | 0.0 | 0.00 | 0.00 | 0.00 | 82 | 1065.4 |
| 20260906230033 | 13 | 157 | 0.0 | 0.0 | 0.00 | 0.00 | 0.00 | 82 | 1065.5 |
| 20260906225920 | 13 | 157 | 0.0 | 0.0 | 0.00 | 0.00 | 0.00 | 82 | 1065.4 |
| 20260906225801 | 13 | 157 | 0.0 | 0.0 | 0.00 | 0.00 | 0.00 | 82 | 1065.4 |
| 20260906225656 | 13 | 157 | 0.0 | 0.0 | 0.00 | 0.00 | 0.00 | 82 | 1065.5 |
| 20260906225543 | 13 | 157 | 0.0 | 0.0 | 0.00 | 0.00 | 0.00 | 82 | 1065.5 |
| 20260906225438 | 13 | 157 | 0.0 | 0.0 | 0.00 | 0.00 | 0.00 | 81 | 1065.5 |
| 20260906225330 | 13 | 157 | 0.0 | 0.0 | 0.00 | 0.00 | 0.00 | 81 | 1065.5 |
| 20260906225209 | 13 | 157 | 0.0 | 0.0 | 0.00 | 0.00 | 0.00 | 81 | 1065.5 |
| 20260906225059 | 13 | 157 | 0.0 | 0.0 | 0.00 | 0.00 | 0.00 | 81 | 1065.5 |
| 20260906224954 | 13 | 157 | 0.0 | 0.0 | 0.00 | 0.00 | 0.00 | 81 | 1065.5 |
| 20260906224846 | 13 | 157 | 0.0 | 0.0 | 0.00 | 0.00 | 0.00 | 81 | 1065.5 |
| 20260906224733 | 13 | 157 | 0.0 | 0.0 | 0.00 | 0.00 | 0.00 | 81 | 1065.5 |
| 20260906224611 | 13 | 157 | 0.0 | 0.0 | 0.00 | 0.00 | 0.00 | 81 | 1065.5 |
| 20260906224453 | 14 | 157 | 0.0 | 0.0 | 0.00 | 0.00 | 0.00 | 81 | 1065.6 |
| 20260906224338 | 14 | 157 | 0.0 | 0.0 | 0.00 | 0.00 | 0.00 | 81 | 1065.6 |
| 20260906224225 | 14 | 157 | 0.0 | 0.0 | 0.00 | 0.00 | 0.00 | 81 | 1065.6 |
| 20260906224120 | 14 | 157 | 0.0 | 0.0 | 0.00 | 0.00 | 0.00 | 81 | 1065.5 |
| 20260906223959 | 14 | 157 | 0.0 | 0.0 | 0.00 | 0.00 | 0.00 | 81 | 1065.6 |
| 20260906223853 | 14 | 135 | 0.0 | 0.0 | 0.00 | 0.00 | 0.00 | 81 | 1065.5 |
| 20260906223740 | 14 | 157 | 0.0 | 0.0 | 0.00 | 0.00 | 0.00 | 80 | 1065.6 |
| 20260906223627 | 14 | 157 | 0.0 | 0.0 | 0.00 | 0.00 | 0.00 | 80 | 1065.5 |
| 20260906223516 | 14 | 157 | 0.0 | 0.0 | 0.00 | 0.00 | 0.00 | 80 | 1065.6 |
| 20260906223409 | 14 | 157 | 0.0 | 0.0 | 0.00 | 0.00 | 0.00 | 80 | 1065.6 |
| 20260906223257 | 14 | 157 | 0.0 | 0.0 | 0.00 | 0.00 | 0.00 | 80 | 1065.6 |
| 20260906223151 | 14 | 180 | 0.0 | 0.0 | 0.00 | 0.00 | 0.00 | 79 | 1065.7 |
| 20260906223037 | 14 | 180 | 0.0 | 0.0 | 0.00 | 0.00 | 0.00 | 79 | 1065.7 |
| 20260906222925 | 14 | 180 | 0.0 | 0.0 | 0.00 | 0.00 | 0.00 | 79 | 1065.6 |
| 20260906222803 | 14 | 157 | 0.0 | 0.0 | 0.00 | 0.00 | 0.00 | 79 | 1065.7 |
| 20260906222641 | 14 | 157 | 0.0 | 0.0 | 0.00 | 0.00 | 0.00 | 79 | 1065.7 |
| 20260906222523 | 15 | 157 | 0.0 | 0.0 | 0.00 | 0.00 | 0.00 | 79 | 1065.6 |
| 20260906222418 | 15 | 157 | 0.0 | 0.0 | 0.00 | 0.00 | 0.00 | 79 | 1065.6 |
| 20260906222313 | 15 | 180 | 0.0 | 0.0 | 0.00 | 0.00 | 0.00 | 79 | 1065.7 |
| 20260906222206 | 15 | 157 | 0.0 | 0.0 | 0.00 | 0.00 | 0.00 | 79 | 1065.7 |
| 20260906222052 | 15 | 180 | 0.0 | 0.0 | 0.00 | 0.00 | 0.00 | 79 | 1065.9 |
| 20260906221940 | 15 | 180 | 0.0 | 0.0 | 0.00 | 0.00 | 0.00 | 79 | 1065.8 |
| 20260906221835 | 15 | 180 | 0.0 | 0.0 | 0.00 | 0.00 | 0.00 | 79 | 1065.8 |
| 20260906221728 | 15 | 180 | 0.0 | 0.0 | 0.00 | 0.00 | 0.00 | 79 | 1065.8 |
| 20260906221623 | 15 | 157 | 0.0 | 0.0 | 0.00 | 0.00 | 0.00 | 79 | 1065.8 |
| 20260906221516 | 15 | 180 | 0.0 | 0.0 | 0.00 | 0.00 | 0.00 | 79 | 1065.9 |
| 20260906221404 | 15 | 180 | 0.0 | 0.0 | 0.00 | 0.00 | 0.00 | 79 | 1065.9 |
| 20260906221255 | 15 | 157 | 0.0 | 0.0 | 0.00 | 0.00 | 0.00 | 79 | 1065.8 |
| 20260906221134 | 15 | 180 | 0.0 | 0.0 | 0.00 | 0.00 | 0.00 | 79 | 1066.0 |
| 20260906221020 | 15 | 180 | 0.0 | 0.0 | 0.00 | 0.00 | 0.00 | 79 | 1065.9 |
| 20260906220913 | 15 | 157 | 0.0 | 0.0 | 0.00 | 0.00 | 0.00 | 79 | 1065.9 |
| 20260906220758 | 15 | 157 | 0.0 | 0.0 | 0.00 | 0.00 | 0.00 | 79 | 1065.9 |
| 20260906220636 | 15 | 157 | 0.0 | 0.0 | 0.00 | 0.00 | 0.00 | 79 | 1065.8 |
| 20260906220523 | 15 | 180 | 0.0 | 0.0 | 0.00 | 0.00 | 0.00 | 79 | 1065.9 |
| 20260906220417 | 15 | 157 | 0.0 | 0.0 | 0.00 | 0.00 | 0.00 | 79 | 1065.9 |
| 20260906220311 | 15 | 157 | 0.0 | 0.0 | 0.00 | 0.00 | 0.00 | 79 | 1065.9 |
| 20260906220205 | 15 | 157 | 0.0 | 0.0 | 0.00 | 0.00 | 0.00 | 79 | 1065.9 |
| 20260906220052 | 15 | 157 | 0.0 | 0.0 | 0.00 | 0.00 | 0.00 | 79 | 1065.9 |
| 20260906215936 | 15 | 180 | 0.0 | 0.0 | 0.00 | 0.00 | 0.00 | 79 | 1065.9 |
| 20260906215824 | 15 | 157 | 0.0 | 0.0 | 0.00 | 0.00 | 0.00 | 79 | 1065.8 |
| 20260906215716 | 15 | 180 | 0.0 | 0.0 | 0.00 | 0.00 | 0.00 | 79 | 1065.8 |
| 20260906215609 | 15 | 157 | 0.0 | 0.0 | 0.00 | 0.00 | 0.00 | 79 | 1065.8 |
| 20260906215454 | 15 | 180 | 0.0 | 0.0 | 0.00 | 0.00 | 0.00 | 79 | 1065.8 |
| 20260906215327 | 15 | 180 | 0.0 | 0.0 | 0.00 | 0.00 | 0.00 | 79 | 1065.8 |
| 20260906215218 | 15 | 180 | 0.0 | 0.0 | 0.00 | 0.00 | 0.00 | 79 | 1065.9 |
| 20260906215105 | 15 | 180 | 0.0 | 0.0 | 0.00 | 0.00 | 0.00 | 79 | 1065.9 |
| 20260906214959 | 15 | 180 | 0.0 | 0.0 | 0.00 | 0.00 | 0.00 | 79 | 1065.9 |
| 20260906214853 | 15 | 157 | 0.0 | 0.0 | 0.00 | 0.00 | 0.00 | 79 | 1065.9 |
| 20260906214746 | 15 | 180 | 0.0 | 0.0 | 0.00 | 0.00 | 0.00 | 79 | 1066.0 |
| 20260906214640 | 15 | 180 | 0.0 | 0.0 | 0.00 | 0.00 | 0.00 | 79 | 1065.9 |
| 20260906214527 | 15 | 157 | 4.8 | 0.0 | 0.00 | 0.00 | 0.00 | 79 | 1066.0 |
| 20260906214407 | 15 | 180 | 0.0 | 0.0 | 0.00 | 0.00 | 0.00 | 79 | 1065.9 |
| 20260906214252 | 15 | 157 | 0.0 | 0.0 | 0.00 | 0.00 | 0.00 | 78 | 1066.0 |
| 20260906214132 | 15 | 157 | 0.0 | 0.0 | 0.00 | 0.00 | 0.00 | 78 | 1065.9 |
| 20260906214020 | 15 | 157 | 0.0 | 0.0 | 0.00 | 0.00 | 0.00 | 78 | 1066.0 |
| 20260906213916 | 15 | 157 | 0.0 | 0.0 | 0.00 | 0.00 | 0.00 | 78 | 1066.0 |
| 20260906213810 | 15 | 157 | 0.0 | 0.0 | 0.00 | 0.00 | 0.00 | 78 | 1066.0 |
| 20260906213703 | 15 | 157 | 0.0 | 0.0 | 0.00 | 0.00 | 0.00 | 78 | 1066.0 |
| 20260906213541 | 15 | 157 | 0.0 | 0.0 | 0.00 | 0.00 | 0.00 | 78 | 1066.0 |
| 20260906213429 | 15 | 157 | 0.0 | 0.0 | 0.00 | 0.00 | 0.00 | 78 | 1066.1 |
| 20260906213310 | 15 | 180 | 0.0 | 0.0 | 0.00 | 0.00 | 0.00 | 78 | 1066.0 |
| 20260906213203 | 15 | 180 | 0.0 | 0.0 | 0.00 | 0.00 | 0.00 | 78 | 1066.0 |
| 20260906213049 | 15 | 180 | 0.0 | 0.0 | 0.00 | 0.00 | 0.00 | 78 | 1066.0 |
| 20260906212938 | 15 | 180 | 0.0 | 0.0 | 0.00 | 0.00 | 0.00 | 78 | 1066.0 |
| 20260906212823 | 15 | 180 | 0.0 | 0.0 | 0.00 | 0.00 | 0.00 | 78 | 1066.0 |
| 20260906212710 | 15 | 225 | 0.0 | 0.0 | 0.00 | 0.00 | 0.00 | 78 | 1066.0 |
| 20260906212556 | 15 | 157 | 0.0 | 0.0 | 0.00 | 0.00 | 0.00 | 78 | 1066.0 |
| 20260906212436 | 15 | 180 | 0.0 | 0.0 | 0.00 | 0.00 | 0.00 | 78 | 1066.0 |
| 20260906212323 | 15 | 135 | 0.0 | 0.0 | 0.00 | 0.00 | 0.00 | 78 | 1065.9 |
| 20260906212218 | 15 | 135 | 4.8 | 0.0 | 0.00 | 0.00 | 0.00 | 78 | 1066.0 |
| 20260906212112 | 15 | 157 | 0.0 | 0.0 | 0.00 | 0.00 | 0.00 | 77 | 1065.9 |
| 20260906211958 | 15 | 157 | 0.0 | 0.0 | 0.00 | 0.00 | 0.00 | 77 | 1066.0 |
| 20260906211838 | 15 | 157 | 0.0 | 0.0 | 0.00 | 0.00 | 0.00 | 77 | 1066.0 |
| 20260906211726 | 15 | 157 | 0.0 | 0.0 | 0.00 | 0.00 | 0.00 | 77 | 1066.0 |
| 20260906211620 | 15 | 157 | 0.0 | 0.0 | 0.00 | 0.00 | 0.00 | 77 | 1066.0 |
| 20260906211514 | 15 | 157 | 0.0 | 0.0 | 0.00 | 0.00 | 0.00 | 77 | 1066.0 |
| 20260906211354 | 15 | 157 | 0.0 | 0.0 | 0.00 | 0.00 | 0.00 | 77 | 1066.0 |
| 20260906211240 | 15 | 157 | 0.0 | 0.0 | 0.00 | 0.00 | 0.00 | 77 | 1066.0 |
| 20260906211127 | 16 | 157 | 0.0 | 0.0 | 0.00 | 0.00 | 0.00 | 77 | 1066.0 |
| 20260906211006 | 16 | 157 | 0.0 | 0.0 | 0.00 | 0.00 | 0.00 | 77 | 1066.0 |
| 20260906210853 | 16 | 157 | 0.0 | 0.0 | 0.00 | 0.00 | 0.00 | 77 | 1066.0 |
| 20260906210740 | 16 | 157 | 0.0 | 0.0 | 0.00 | 0.00 | 0.00 | 78 | 1066.0 |
| 20260906210618 | 16 | 157 | 0.0 | 0.0 | 0.00 | 0.00 | 0.00 | 78 | 1066.0 |
| 20260906210505 | 16 | 135 | 0.0 | 0.0 | 0.00 | 0.00 | 0.00 | 78 | 1066.0 |
| 20260906210352 | 15 | 135 | 0.0 | 0.0 | 0.00 | 0.00 | 0.00 | 78 | 1066.0 |
| 20260906210232 | 15 | 180 | 0.0 | 0.0 | 0.00 | 0.00 | 0.00 | 78 | 1066.0 |
| 20260906210118 | 15 | 157 | 0.0 | 0.0 | 0.00 | 0.00 | 0.00 | 78 | 1066.0 |
| 20260906210004 | 15 | 157 | 0.0 | 0.0 | 0.00 | 0.00 | 0.00 | 78 | 1066.0 |
| 20260906205851 | 15 | 157 | 0.0 | 0.0 | 0.00 | 0.00 | 0.00 | 78 | 1066.0 |
| 20260906205739 | 15 | 157 | 0.0 | 0.0 | 0.00 | 0.00 | 0.00 | 77 | 1066.0 |
| 20260906205625 | 15 | 180 | 0.0 | 0.0 | 0.00 | 0.00 | 0.00 | 77 | 1065.9 |
| 20260906205513 | 15 | 157 | 0.0 | 0.0 | 0.00 | 0.00 | 0.00 | 77 | 1066.0 |
| 20260906205408 | 16 | 157 | 0.0 | 0.0 | 0.00 | 0.00 | 0.00 | 77 | 1066.0 |
| 20260906205255 | 16 | 157 | 0.0 | 0.0 | 0.00 | 0.00 | 0.00 | 77 | 1066.0 |
| 20260906205141 | 16 | 157 | 0.0 | 0.0 | 0.00 | 0.00 | 0.00 | 77 | 1066.0 |
| 20260906205028 | 16 | 157 | 0.0 | 0.0 | 0.00 | 0.00 | 0.00 | 76 | 1066.0 |
| 20260906204915 | 16 | 157 | 0.0 | 0.0 | 0.00 | 0.00 | 0.00 | 76 | 1066.0 |
| 20260906204810 | 16 | 157 | 0.0 | 0.0 | 0.00 | 0.00 | 0.00 | 76 | 1066.1 |
| 20260906204656 | 16 | 157 | 0.0 | 0.0 | 0.00 | 0.00 | 0.00 | 76 | 1066.2 |
| 20260906204536 | 16 | 180 | 0.0 | 0.0 | 0.00 | 0.00 | 0.00 | 76 | 1066.1 |
| 20260906204425 | 16 | 157 | 0.0 | 0.0 | 0.00 | 0.00 | 0.00 | 76 | 1066.2 |
| 20260906204319 | 16 | 157 | 0.0 | 0.0 | 0.00 | 0.00 | 0.00 | 76 | 1066.1 |
| 20260906204215 | 16 | 157 | 0.0 | 0.0 | 0.00 | 0.00 | 0.00 | 76 | 1066.2 |
| 20260906204109 | 16 | 157 | 0.0 | 0.0 | 0.00 | 0.00 | 0.00 | 76 | 1066.2 |
| 20260906204003 | 16 | 157 | 0.0 | 0.0 | 0.00 | 0.00 | 0.00 | 76 | 1066.2 |
| 20260906203858 | 16 | 157 | 4.8 | 0.0 | 0.00 | 0.00 | 0.00 | 76 | 1066.2 |
| 20260906203728 | 16 | 202 | 0.0 | 0.0 | 0.00 | 0.00 | 0.00 | 75 | 1066.2 |
| 20260906203608 | 16 | 135 | 4.8 | 0.0 | 0.00 | 0.00 | 0.00 | 75 | 1066.2 |
| 20260906203502 | 16 | 135 | 9.7 | 0.0 | 0.00 | 0.00 | 0.00 | 75 | 1066.2 |
| 20260906203352 | 16 | 157 | 0.0 | 0.0 | 0.00 | 0.00 | 0.00 | 75 | 1066.3 |
| 20260906203245 | 16 | 157 | 6.4 | 0.0 | 0.00 | 0.00 | 0.00 | 75 | 1066.3 |
| 20260906203139 | 16 | 180 | 11.3 | 0.0 | 0.00 | 0.00 | 0.00 | 75 | 1066.2 |
| 20260906203026 | 16 | 157 | 0.0 | 0.0 | 0.00 | 0.00 | 0.00 | 75 | 1066.3 |
| 20260906202904 | 16 | 180 | 0.0 | 0.0 | 0.00 | 0.00 | 0.00 | 75 | 1066.3 |
| 20260906202743 | 16 | 157 | 0.0 | 0.0 | 0.00 | 0.00 | 0.00 | 75 | 1066.3 |
| 20260906202630 | 16 | 157 | 4.8 | 0.0 | 0.00 | 0.00 | 0.00 | 75 | 1066.3 |
| 20260906202517 | 16 | 157 | 0.0 | 0.0 | 0.00 | 0.00 | 0.00 | 74 | 1066.3 |
| 20260906202412 | 16 | 202 | 0.0 | 0.0 | 0.00 | 0.00 | 0.00 | 74 | 1066.3 |
| 20260906202301 | 16 | 202 | 0.0 | 0.0 | 0.00 | 0.00 | 0.00 | 74 | 1066.3 |
| 20260906202153 | 17 | 180 | 0.0 | 0.0 | 0.00 | 0.00 | 0.00 | 74 | 1066.3 |
| 20260906202040 | 17 | 157 | 11.3 | 0.0 | 0.00 | 0.00 | 0.00 | 74 | 1066.3 |
| 20260906201927 | 17 | 157 | 0.0 | 0.0 | 0.00 | 0.00 | 0.00 | 74 | 1066.3 |
| 20260906201800 | 17 | 157 | 0.0 | 0.0 | 0.00 | 0.00 | 0.00 | 74 | 1066.3 |
| 20260906201654 | 17 | 157 | 0.0 | 0.0 | 0.00 | 0.00 | 0.00 | 74 | 1066.4 |
| 20260906201540 | 17 | 112 | 0.0 | 0.0 | 0.00 | 0.00 | 0.00 | 74 | 1066.3 |
| 20260906201427 | 17 | 180 | 8.0 | 0.0 | 0.00 | 0.00 | 0.00 | 74 | 1066.3 |
| 20260906201314 | 17 | 180 | 0.0 | 0.0 | 0.00 | 0.00 | 0.00 | 74 | 1066.3 |
| 20260906201201 | 17 | 135 | 0.0 | 0.0 | 0.00 | 0.00 | 0.00 | 74 | 1066.3 |
| 20260906201047 | 17 | 180 | 6.4 | 0.0 | 0.00 | 0.00 | 0.00 | 74 | 1066.3 |
| 20260906200927 | 17 | 180 | 3.2 | 0.0 | 0.00 | 0.00 | 0.00 | 74 | 1066.3 |
| 20260906200813 | 17 | 157 | 0.0 | 0.0 | 0.00 | 0.00 | 0.00 | 74 | 1066.3 |
| 20260906200701 | 17 | 157 | 6.4 | 0.0 | 0.00 | 0.00 | 0.00 | 74 | 1066.3 |
| 20260906200539 | 17 | 202 | 9.7 | 0.0 | 0.00 | 0.00 | 0.00 | 74 | 1066.3 |
| 20260906200426 | 17 | 135 | 11.3 | 0.0 | 0.00 | 0.00 | 0.00 | 74 | 1066.3 |
| 20260906200312 | 17 | 135 | 9.7 | 0.0 | 0.00 | 0.00 | 0.00 | 74 | 1066.3 |
| 20260906200151 | 17 | 157 | 14.5 | 0.0 | 0.00 | 0.00 | 0.00 | 74 | 1066.3 |
| 20260906200024 | 17 | 135 | 0.0 | 0.0 | 0.00 | 0.00 | 0.00 | 74 | 1066.3 |
| 20260906195909 | 17 | 157 | 0.0 | 0.0 | 0.00 | 0.00 | 0.00 | 74 | 1066.3 |
| 20260906195747 | 17 | 135 | 9.7 | 0.0 | 0.00 | 0.00 | 0.00 | 74 | 1066.3 |
| 20260906195636 | 17 | 157 | 9.7 | 0.0 | 0.00 | 0.00 | 0.00 | 74 | 1066.3 |
| 20260906195530 | 17 | 180 | 12.9 | 0.0 | 0.00 | 0.00 | 0.00 | 74 | 1066.4 |
| 20260906195416 | 17 | 112 | 8.0 | 0.0 | 0.00 | 0.00 | 0.00 | 74 | 1066.3 |
| 20260906195256 | 17 | 157 | 4.8 | 0.0 | 0.00 | 0.00 | 0.00 | 74 | 1066.4 |
| 20260906195150 | 17 | 157 | 0.0 | 0.0 | 0.00 | 0.00 | 0.00 | 74 | 1066.4 |
| 20260906195039 | 17 | 157 | 16.1 | 0.0 | 0.00 | 0.00 | 0.00 | 74 | 1066.4 |
| 20260906194934 | 17 | 135 | 9.7 | 0.0 | 0.00 | 0.00 | 0.00 | 74 | 1066.4 |
| 20260906194820 | 17 | 157 | 4.8 | 0.0 | 0.00 | 0.00 | 0.00 | 74 | 1066.5 |
| 20260906194706 | 17 | 135 | 0.0 | 0.0 | 0.00 | 0.00 | 0.00 | 74 | 1066.5 |
| 20260906194553 | 17 | 157 | 8.0 | 0.0 | 0.00 | 0.00 | 0.00 | 74 | 1066.6 |
| 20260906194447 | 17 | 157 | 0.0 | 0.0 | 0.00 | 0.00 | 0.00 | 74 | 1066.4 |
| 20260906194337 | 17 | 135 | 11.3 | 0.0 | 0.00 | 0.00 | 0.00 | 74 | 1066.6 |
| 20260906194229 | 17 | 135 | 3.2 | 0.0 | 0.00 | 0.00 | 0.00 | 74 | 1066.5 |
| 20260906194116 | 17 | 135 | 9.7 | 0.0 | 0.00 | 0.00 | 0.00 | 74 | 1066.5 |
| 20260906194004 | 17 | 157 | 9.7 | 0.0 | 0.00 | 0.00 | 0.00 | 74 | 1066.6 |
| 20260906193851 | 17 | 157 | 8.0 | 0.0 | 0.00 | 0.00 | 0.00 | 74 | 1066.8 |
| 20260906193745 | 17 | 135 | 4.8 | 0.0 | 0.00 | 0.00 | 0.00 | 74 | 1066.7 |
| 20260906193624 | 17 | 135 | 8.0 | 0.0 | 0.00 | 0.00 | 0.00 | 75 | 1066.8 |
| 20260906193503 | 17 | 157 | 0.0 | 0.0 | 0.00 | 0.00 | 0.00 | 75 | 1066.8 |
| 20260906193358 | 17 | 135 | 6.4 | 0.0 | 0.00 | 0.00 | 0.00 | 75 | 1066.8 |
| 20260906193238 | 17 | 157 | 0.0 | 0.0 | 0.00 | 0.00 | 0.00 | 75 | 1066.8 |
| 20260906193132 | 17 | 135 | 8.0 | 0.0 | 0.00 | 0.00 | 0.00 | 75 | 1066.9 |
| 20260906193018 | 17 | 135 | 6.4 | 0.0 | 0.00 | 0.00 | 0.00 | 75 | 1066.9 |
| 20260906192905 | 17 | 135 | 0.0 | 0.0 | 0.00 | 0.00 | 0.00 | 75 | 1066.9 |
| 20260906192759 | 17 | 135 | 8.0 | 0.0 | 0.00 | 0.00 | 0.00 | 75 | 1067.0 |
| 20260906192639 | 17 | 135 | 0.0 | 0.0 | 0.00 | 0.00 | 0.00 | 75 | 1067.0 |
| 20260906192502 | 17 | 135 | 0.0 | 0.0 | 0.00 | 0.00 | 0.00 | 75 | 1067.1 |
| 20260906192359 | 17 | 135 | 3.2 | 0.0 | 0.00 | 0.00 | 0.00 | 75 | 1067.0 |
| 20260906192251 | 17 | 135 | 0.0 | 0.0 | 0.00 | 0.00 | 0.00 | 74 | 1067.0 |
| 20260906192131 | 16 | 135 | 8.0 | 0.0 | 0.00 | 0.00 | 0.00 | 74 | 1067.1 |
| 20260906192019 | 17 | 135 | 0.0 | 0.0 | 0.00 | 0.00 | 0.00 | 74 | 1067.2 |
| 20260906191912 | 17 | 135 | 0.0 | 0.0 | 0.00 | 0.00 | 0.00 | 74 | 1067.1 |
| 20260906191807 | 17 | 112 | 0.0 | 0.0 | 0.00 | 0.00 | 0.00 | 74 | 1067.2 |
| 20260906191647 | 17 | 135 | 0.0 | 0.0 | 0.00 | 0.00 | 0.00 | 74 | 1067.3 |
| 20260906191543 | 17 | 135 | 3.2 | 0.0 | 0.00 | 0.00 | 0.00 | 74 | 1067.2 |
| 20260906191437 | 17 | 157 | 0.0 | 0.0 | 0.00 | 0.00 | 0.00 | 74 | 1067.3 |
| 20260906191330 | 17 | 157 | 0.0 | 0.0 | 0.00 | 0.00 | 0.00 | 74 | 1067.3 |
| 20260906191218 | 17 | 135 | 0.0 | 0.0 | 0.00 | 0.00 | 0.00 | 74 | 1067.2 |
| 20260906191056 | 17 | 135 | 0.0 | 0.0 | 0.00 | 0.00 | 0.00 | 74 | 1067.3 |
| 20260906190944 | 17 | 135 | 3.2 | 0.0 | 0.00 | 0.00 | 0.00 | 73 | 1067.3 |
| 20260906190824 | 17 | 157 | 0.0 | 0.0 | 0.00 | 0.00 | 0.00 | 73 | 1067.2 |
| 20260906190716 | 17 | 135 | 0.0 | 0.0 | 0.00 | 0.00 | 0.00 | 73 | 1067.2 |
| 20260906190556 | 17 | 135 | 0.0 | 0.0 | 0.00 | 0.00 | 0.00 | 73 | 1067.4 |
| 20260906190451 | 17 | 157 | 0.0 | 0.0 | 0.00 | 0.00 | 0.00 | 73 | 1067.4 |
| 20260906190337 | 17 | 135 | 3.2 | 0.0 | 0.00 | 0.00 | 0.00 | 73 | 1067.5 |
| 20260906190208 | 17 | 135 | 0.0 | 0.0 | 0.00 | 0.00 | 0.00 | 73 | 1067.4 |
| 20260906190056 | 17 | 135 | 0.0 | 0.0 | 0.00 | 0.00 | 0.00 | 72 | 1067.5 |
| 20260906185949 | 17 | 135 | 0.0 | 0.0 | 0.00 | 0.00 | 0.00 | 72 | 1067.5 |
| 20260906185827 | 17 | 135 | 0.0 | 0.0 | 0.00 | 0.00 | 0.00 | 72 | 1067.4 |
| 20260906185712 | 17 | 135 | 0.0 | 0.0 | 0.00 | 0.00 | 0.00 | 72 | 1067.5 |
| 20260906185559 | 17 | 135 | 0.0 | 0.0 | 0.00 | 0.00 | 0.00 | 72 | 1067.4 |
| 20260906185452 | 17 | 135 | 0.0 | 0.0 | 0.00 | 0.00 | 0.00 | 72 | 1067.5 |
| 20260906185346 | 17 | 135 | 0.0 | 0.0 | 0.00 | 0.00 | 0.00 | 72 | 1067.4 |
| 20260906185240 | 17 | 135 | 0.0 | 0.0 | 0.00 | 0.00 | 0.00 | 72 | 1067.6 |
| 20260906185134 | 17 | 157 | 0.0 | 0.0 | 0.00 | 0.00 | 0.00 | 72 | 1067.6 |
| 20260906185028 | 17 | 157 | 0.0 | 0.0 | 0.00 | 0.00 | 0.00 | 72 | 1067.5 |
| 20260906184922 | 17 | 135 | 0.0 | 0.0 | 0.00 | 0.00 | 0.00 | 72 | 1067.7 |
| 20260906184816 | 17 | 135 | 0.0 | 0.0 | 0.00 | 0.00 | 0.00 | 72 | 1067.5 |
| 20260906184711 | 17 | 135 | 0.0 | 0.0 | 0.00 | 0.00 | 0.00 | 72 | 1067.6 |
| 20260906184607 | 17 | 157 | 0.0 | 0.0 | 0.00 | 0.00 | 0.00 | 72 | 1067.5 |
| 20260906184501 | 17 | 157 | 4.8 | 0.0 | 0.00 | 0.00 | 0.00 | 72 | 1067.5 |
| 20260906184356 | 17 | 135 | 0.0 | 0.0 | 0.00 | 0.00 | 0.00 | 72 | 1067.5 |
| 20260906184226 | 17 | 135 | 0.0 | 0.0 | 0.00 | 0.00 | 0.00 | 72 | 1067.5 |
| 20260906184113 | 17 | 135 | 0.0 | 0.0 | 0.00 | 0.00 | 0.00 | 72 | 1067.5 |
| 20260906184009 | 17 | 135 | 0.0 | 0.0 | 0.00 | 0.00 | 0.00 | 72 | 1067.5 |
| 20260906183906 | 17 | 157 | 0.0 | 0.0 | 0.00 | 0.00 | 0.00 | 72 | 1067.5 |
| 20260906183758 | 17 | 135 | 0.0 | 0.0 | 0.00 | 0.00 | 0.00 | 72 | 1067.5 |
| 20260906183638 | 17 | 157 | 0.0 | 0.0 | 0.00 | 0.00 | 0.00 | 72 | 1067.6 |
| 20260906183524 | 17 | 135 | 0.0 | 0.0 | 0.00 | 0.00 | 0.00 | 72 | 1067.6 |
| 20260906183411 | 17 | 135 | 0.0 | 0.0 | 0.00 | 0.00 | 0.00 | 71 | 1067.7 |
| 20260906183305 | 17 | 157 | 0.0 | 0.0 | 0.00 | 0.00 | 0.00 | 71 | 1067.6 |
| 20260906183155 | 17 | 135 | 0.0 | 0.0 | 0.00 | 0.00 | 0.00 | 71 | 1067.6 |
| 20260906183047 | 17 | 135 | 0.0 | 0.0 | 0.00 | 0.00 | 0.00 | 71 | 1067.5 |
| 20260906182926 | 17 | 157 | 0.0 | 0.0 | 0.00 | 0.00 | 0.00 | 71 | 1067.5 |
| 20260906182814 | 17 | 135 | 4.8 | 0.0 | 0.00 | 0.00 | 0.00 | 71 | 1067.7 |
| 20260906182709 | 17 | 135 | 0.0 | 0.0 | 0.00 | 0.00 | 0.00 | 71 | 1067.7 |
| 20260906182603 | 17 | 157 | 0.0 | 0.0 | 0.00 | 0.00 | 0.00 | 71 | 1067.6 |
| 20260906182450 | 17 | 157 | 0.0 | 0.0 | 0.00 | 0.00 | 0.00 | 71 | 1067.6 |
| 20260906182329 | 17 | 135 | 0.0 | 0.0 | 0.00 | 0.00 | 0.00 | 71 | 1067.6 |
| 20260906182216 | 17 | 135 | 0.0 | 0.0 | 0.00 | 0.00 | 0.00 | 70 | 1067.5 |
| 20260906182111 | 17 | 157 | 0.0 | 0.0 | 0.00 | 0.00 | 0.00 | 70 | 1067.5 |
| 20260906182006 | 17 | 157 | 0.0 | 0.0 | 0.00 | 0.00 | 0.00 | 70 | 1067.5 |
| 20260906181853 | 17 | 157 | 0.0 | 0.0 | 0.00 | 0.00 | 0.00 | 70 | 1067.5 |
| 20260906181739 | 17 | 135 | 6.4 | 0.0 | 0.00 | 0.00 | 0.00 | 70 | 1067.4 |
| 20260906181618 | 17 | 157 | 0.0 | 0.0 | 0.00 | 0.00 | 0.00 | 70 | 1067.7 |
| 20260906181507 | 17 | 157 | 0.0 | 0.0 | 0.00 | 0.00 | 0.00 | 70 | 1067.5 |
| 20260906181354 | 17 | 135 | 8.0 | 0.0 | 0.00 | 0.00 | 0.00 | 70 | 1067.5 |
| 20260906181247 | 17 | 157 | 0.0 | 0.0 | 0.00 | 0.00 | 0.00 | 70 | 1067.6 |
| 20260906181134 | 17 | 157 | 0.0 | 0.0 | 0.00 | 0.00 | 0.00 | 70 | 1067.6 |
| 20260906181020 | 17 | 157 | 0.0 | 0.0 | 0.00 | 0.00 | 0.00 | 70 | 1067.6 |
| 20260906180901 | 17 | 157 | 0.0 | 0.0 | 0.00 | 0.00 | 0.00 | 70 | 1067.7 |
| 20260906180739 | 17 | 135 | 3.2 | 0.0 | 0.00 | 0.00 | 0.00 | 69 | 1067.8 |
| 20260906180633 | 17 | 135 | 4.8 | 0.0 | 0.00 | 0.00 | 0.00 | 69 | 1067.7 |
| 20260906180521 | 17 | 157 | 0.0 | 0.0 | 0.00 | 0.00 | 0.00 | 69 | 1067.7 |
| 20260906180407 | 17 | 135 | 0.0 | 0.0 | 0.00 | 0.00 | 0.00 | 69 | 1067.6 |
| 20260906180255 | 17 | 135 | 4.8 | 0.0 | 0.00 | 0.00 | 0.00 | 69 | 1067.7 |
| 20260906180151 | 18 | 135 | 0.0 | 0.0 | 0.00 | 0.00 | 0.00 | 69 | 1067.7 |
| 20260906180046 | 18 | 157 | 3.2 | 0.0 | 0.00 | 0.00 | 0.00 | 69 | 1067.8 |
| 20260906175939 | 18 | 135 | 4.8 | 0.0 | 0.00 | 0.00 | 0.00 | 69 | 1067.7 |
| 20260906175826 | 18 | 135 | 0.0 | 0.0 | 0.00 | 0.00 | 0.00 | 69 | 1067.7 |
| 20260906175721 | 18 | 135 | 0.0 | 0.0 | 0.00 | 0.00 | 0.00 | 69 | 1067.8 |
| 20260906175600 | 18 | 135 | 4.8 | 0.0 | 0.00 | 0.00 | 0.00 | 69 | 1067.8 |
| 20260906175439 | 18 | 135 | 0.0 | 0.0 | 0.00 | 0.00 | 0.00 | 69 | 1067.9 |
| 20260906175334 | 18 | 135 | 0.0 | 0.0 | 0.00 | 0.00 | 0.00 | 69 | 1067.9 |
| 20260906175228 | 18 | 135 | 0.0 | 0.0 | 0.00 | 0.00 | 0.00 | 69 | 1067.9 |
| 20260906175107 | 18 | 135 | 0.0 | 0.0 | 0.00 | 0.00 | 0.00 | 68 | 1067.9 |
| 20260906174954 | 18 | 135 | 0.0 | 0.0 | 0.00 | 0.00 | 0.00 | 68 | 1068.0 |
| 20260906174841 | 18 | 157 | 0.0 | 0.0 | 0.00 | 0.00 | 0.00 | 68 | 1068.0 |
| 20260906174737 | 18 | 157 | 0.0 | 0.0 | 0.00 | 0.00 | 0.00 | 68 | 1067.9 |
| 20260906174631 | 18 | 135 | 0.0 | 0.0 | 0.00 | 0.00 | 0.00 | 68 | 1067.9 |
| 20260906174518 | 18 | 157 | 6.4 | 0.0 | 0.00 | 0.00 | 0.00 | 68 | 1068.0 |
| 20260906174412 | 18 | 135 | 0.0 | 0.0 | 0.00 | 0.00 | 0.00 | 68 | 1068.1 |
| 20260906174301 | 18 | 157 | 0.0 | 0.0 | 0.00 | 0.00 | 0.00 | 68 | 1068.0 |
| 20260906174155 | 18 | 157 | 0.0 | 0.0 | 0.00 | 0.00 | 0.00 | 67 | 1068.0 |
| 20260906174050 | 18 | 157 | 0.0 | 0.0 | 0.00 | 0.00 | 0.00 | 67 | 1068.0 |
| 20260906173943 | 18 | 135 | 0.0 | 0.0 | 0.00 | 0.00 | 0.00 | 67 | 1068.0 |
| 20260906173823 | 18 | 157 | 0.0 | 0.0 | 0.00 | 0.00 | 0.00 | 67 | 1067.9 |
| 20260906173710 | 18 | 157 | 3.2 | 0.0 | 0.00 | 0.00 | 0.00 | 67 | 1068.0 |
| 20260906173557 | 18 | 135 | 0.0 | 0.0 | 0.00 | 0.00 | 0.00 | 67 | 1068.0 |
| 20260906173436 | 18 | 157 | 0.0 | 0.0 | 0.00 | 0.00 | 0.00 | 67 | 1067.9 |
| 20260906173331 | 18 | 135 | 0.0 | 0.0 | 0.00 | 0.00 | 0.00 | 67 | 1068.0 |
| 20260906173218 | 18 | 135 | 0.0 | 0.0 | 0.00 | 0.00 | 0.00 | 67 | 1068.0 |
| 20260906173105 | 18 | 157 | 0.0 | 0.0 | 0.00 | 0.00 | 0.00 | 66 | 1068.0 |
| 20260906173002 | 18 | 157 | 0.0 | 0.0 | 0.00 | 0.00 | 0.00 | 66 | 1068.1 |
| 20260906172854 | 18 | 157 | 0.0 | 0.0 | 0.00 | 0.00 | 0.00 | 66 | 1068.1 |
| 20260906172744 | 18 | 157 | 0.0 | 0.0 | 0.00 | 0.00 | 0.00 | 66 | 1068.2 |
| 20260906172637 | 18 | 157 | 0.0 | 0.0 | 0.00 | 0.00 | 0.00 | 66 | 1068.1 |
| 20260906172524 | 18 | 157 | 0.0 | 0.0 | 0.00 | 0.00 | 0.00 | 66 | 1068.0 |
| 20260906172419 | 18 | 157 | 0.0 | 0.0 | 0.00 | 0.00 | 0.00 | 66 | 1068.1 |
| 20260906172314 | 18 | 157 | 0.0 | 0.0 | 0.00 | 0.00 | 0.00 | 66 | 1068.0 |
| 20260906172153 | 18 | 112 | 0.0 | 0.0 | 0.00 | 0.00 | 0.00 | 66 | 1068.0 |
| 20260906172040 | 18 | 135 | 0.0 | 0.0 | 0.00 | 0.00 | 0.00 | 66 | 1068.0 |
| 20260906171935 | 18 | 157 | 0.0 | 0.0 | 0.00 | 0.00 | 0.00 | 66 | 1068.0 |
| 20260906171813 | 18 | 157 | 0.0 | 0.0 | 0.00 | 0.00 | 0.00 | 66 | 1068.0 |
| 20260906171653 | 18 | 157 | 0.0 | 0.0 | 0.00 | 0.00 | 0.00 | 66 | 1068.0 |
| 20260906171547 | 18 | 157 | 0.0 | 0.0 | 0.00 | 0.00 | 0.00 | 66 | 1067.9 |
| 20260906171434 | 18 | 135 | 0.0 | 0.0 | 0.00 | 0.00 | 0.00 | 66 | 1067.9 |
| 20260906171329 | 18 | 180 | 0.0 | 0.0 | 0.00 | 0.00 | 0.00 | 66 | 1067.9 |
| 20260906171215 | 18 | 157 | 0.0 | 0.0 | 0.00 | 0.00 | 0.00 | 66 | 1067.9 |
| 20260906171103 | 18 | 135 | 0.0 | 0.0 | 0.00 | 0.00 | 0.00 | 66 | 1067.8 |
| 20260906170950 | 18 | 135 | 0.0 | 0.0 | 0.00 | 0.00 | 0.00 | 65 | 1067.8 |
| 20260906170836 | 18 | 157 | 0.0 | 0.0 | 0.00 | 0.00 | 0.00 | 65 | 1067.8 |
| 20260906170730 | 18 | 157 | 6.4 | 0.0 | 0.00 | 0.00 | 0.00 | 65 | 1067.8 |
| 20260906170623 | 18 | 135 | 0.0 | 0.0 | 0.00 | 0.00 | 0.00 | 65 | 1067.7 |
| 20260906170510 | 18 | 135 | 0.0 | 0.0 | 0.00 | 0.00 | 0.00 | 65 | 1067.7 |
| 20260906170356 | 18 | 157 | 0.0 | 0.0 | 0.00 | 0.00 | 0.00 | 65 | 1067.8 |
| 20260906170250 | 18 | 135 | 0.0 | 0.0 | 0.00 | 0.00 | 0.00 | 65 | 1067.8 |
| 20260906170131 | 18 | 135 | 0.0 | 0.0 | 0.00 | 0.00 | 0.00 | 64 | 1067.9 |
| 20260906170025 | 19 | 135 | 0.0 | 0.0 | 0.00 | 0.00 | 0.00 | 64 | 1067.9 |
| 20260906165920 | 19 | 135 | 0.0 | 0.0 | 0.00 | 0.00 | 0.00 | 64 | 1067.9 |
| 20260906165813 | 19 | 135 | 0.0 | 0.0 | 0.00 | 0.00 | 0.00 | 64 | 1068.0 |
| 20260906165707 | 19 | 157 | 4.8 | 0.0 | 0.00 | 0.00 | 0.00 | 64 | 1067.9 |
| 20260906165554 | 19 | 135 | 4.8 | 0.0 | 0.00 | 0.00 | 0.00 | 63 | 1068.0 |
| 20260906165441 | 19 | 135 | 0.0 | 0.0 | 0.00 | 0.00 | 0.00 | 63 | 1068.1 |
| 20260906165327 | 19 | 157 | 3.2 | 0.0 | 0.00 | 0.00 | 0.00 | 63 | 1068.0 |
| 20260906165206 | 19 | 135 | 0.0 | 0.0 | 0.00 | 0.00 | 0.00 | 63 | 1068.0 |
| 20260906165056 | 19 | 135 | 0.0 | 0.0 | 0.00 | 0.00 | 0.00 | 63 | 1068.1 |
| 20260906164948 | 19 | 135 | 0.0 | 0.0 | 0.00 | 0.00 | 0.00 | 63 | 1068.1 |
| 20260906164828 | 19 | 157 | 0.0 | 0.0 | 0.00 | 0.00 | 0.00 | 63 | 1068.0 |
| 20260906164722 | 19 | 135 | 0.0 | 0.0 | 0.00 | 0.00 | 0.00 | 63 | 1068.0 |
| 20260906164617 | 19 | 135 | 0.0 | 0.0 | 0.00 | 0.00 | 0.00 | 63 | 1068.0 |
| 20260906164456 | 19 | 135 | 0.0 | 0.0 | 0.00 | 0.00 | 0.00 | 63 | 1068.1 |
| 20260906164343 | 19 | 135 | 0.0 | 0.0 | 0.00 | 0.00 | 0.00 | 63 | 1068.2 |
| 20260906164230 | 19 | 135 | 0.0 | 0.0 | 0.00 | 0.00 | 0.00 | 62 | 1068.1 |
| 20260906164124 | 19 | 135 | 0.0 | 0.0 | 0.00 | 0.00 | 0.00 | 62 | 1068.2 |
| 20260906164012 | 19 | 135 | 0.0 | 0.0 | 0.00 | 0.00 | 0.00 | 62 | 1068.2 |
| 20260906163859 | 19 | 135 | 6.4 | 0.0 | 0.00 | 0.00 | 0.00 | 62 | 1068.1 |
| 20260906163756 | 19 | 135 | 6.4 | 0.0 | 0.00 | 0.00 | 0.00 | 62 | 1068.2 |
| 20260906163650 | 19 | 157 | 8.0 | 0.0 | 0.00 | 0.00 | 0.00 | 62 | 1068.2 |
| 20260906163535 | 20 | 157 | 6.4 | 0.0 | 0.00 | 0.00 | 0.00 | 62 | 1068.3 |
| 20260906163422 | 20 | 157 | 0.0 | 0.0 | 0.00 | 0.00 | 0.00 | 62 | 1068.3 |
| 20260906163317 | 20 | 157 | 0.0 | 0.0 | 0.00 | 0.00 | 0.00 | 62 | 1068.4 |
| 20260906163206 | 20 | 135 | 0.0 | 0.0 | 0.00 | 0.00 | 0.00 | 62 | 1068.4 |
| 20260906163100 | 20 | 157 | 0.0 | 0.0 | 0.00 | 0.00 | 0.00 | 62 | 1068.4 |
| 20260906162957 | 20 | 135 | 0.0 | 0.0 | 0.00 | 0.00 | 0.00 | 62 | 1068.5 |
| 20260906162849 | 20 | 135 | 0.0 | 0.0 | 0.00 | 0.00 | 0.00 | 61 | 1068.5 |
| 20260906162728 | 20 | 135 | 0.0 | 0.0 | 0.00 | 0.00 | 0.00 | 61 | 1068.6 |
| 20260906162614 | 20 | 157 | 0.0 | 0.0 | 0.00 | 0.00 | 0.00 | 61 | 1068.6 |
| 20260906162446 | 20 | 157 | 0.0 | 0.0 | 0.00 | 0.00 | 0.00 | 61 | 1068.7 |
| 20260906162341 | 20 | 157 | 3.2 | 0.0 | 0.00 | 0.00 | 0.00 | 61 | 1068.7 |
| 20260906162236 | 20 | 157 | 0.0 | 0.0 | 0.00 | 0.00 | 0.00 | 61 | 1068.6 |
| 20260906162123 | 20 | 135 | 0.0 | 0.0 | 0.00 | 0.00 | 0.00 | 61 | 1068.6 |
| 20260906162018 | 20 | 157 | 4.8 | 0.0 | 0.00 | 0.00 | 0.00 | 61 | 1068.5 |
| 20260906161913 | 20 | 180 | 0.0 | 0.0 | 0.00 | 0.00 | 0.00 | 61 | 1068.8 |
| 20260906161800 | 20 | 157 | 0.0 | 0.0 | 0.00 | 0.00 | 0.00 | 61 | 1068.7 |
| 20260906161654 | 20 | 135 | 0.0 | 0.0 | 0.00 | 0.00 | 0.00 | 61 | 1068.7 |
| 20260906161541 | 20 | 180 | 0.0 | 0.0 | 0.00 | 0.00 | 0.00 | 60 | 1068.8 |
| 20260906161436 | 20 | 157 | 0.0 | 0.0 | 0.00 | 0.00 | 0.00 | 60 | 1068.7 |
| 20260906161323 | 20 | 157 | 6.4 | 0.0 | 0.00 | 0.00 | 0.00 | 60 | 1068.7 |
| 20260906161210 | 20 | 180 | 9.7 | 0.0 | 0.00 | 0.00 | 0.00 | 60 | 1068.8 |
| 20260906161105 | 20 | 135 | 8.0 | 0.0 | 0.00 | 0.00 | 0.00 | 61 | 1068.7 |
| 20260906161000 | 20 | 135 | 0.0 | 0.0 | 0.00 | 0.00 | 0.00 | 61 | 1068.7 |
| 20260906160846 | 20 | 135 | 0.0 | 0.0 | 0.00 | 0.00 | 0.00 | 60 | 1068.8 |
| 20260906160717 | 20 | 157 | 0.0 | 0.0 | 0.00 | 0.00 | 0.00 | 60 | 1068.7 |
| 20260906160612 | 20 | 135 | 0.0 | 0.0 | 0.00 | 0.00 | 0.00 | 61 | 1068.8 |
| 20260906160446 | 20 | 135 | 0.0 | 0.0 | 0.00 | 0.00 | 0.00 | 60 | 1068.8 |
| 20260906160339 | 20 | 180 | 0.0 | 0.0 | 0.00 | 0.00 | 0.00 | 60 | 1068.8 |
| 20260906160233 | 20 | 157 | 0.0 | 0.0 | 0.00 | 0.00 | 0.00 | 60 | 1068.7 |
| 20260906160113 | 20 | 157 | 0.0 | 0.0 | 0.00 | 0.00 | 0.00 | 60 | 1068.9 |
| 20260906160007 | 20 | 157 | 0.0 | 0.0 | 0.00 | 0.00 | 0.00 | 60 | 1068.9 |
| 20260906155854 | 20 | 180 | 0.0 | 0.0 | 0.00 | 0.00 | 0.00 | 60 | 1068.9 |
| 20260906155732 | 20 | 157 | 3.2 | 0.0 | 0.00 | 0.00 | 0.00 | 60 | 1068.9 |
| 20260906155620 | 20 | 180 | 0.0 | 0.0 | 0.00 | 0.00 | 0.00 | 60 | 1068.8 |
| 20260906155507 | 20 | 180 | 0.0 | 0.0 | 0.00 | 0.00 | 0.00 | 60 | 1068.9 |
| 20260906155401 | 20 | 157 | 0.0 | 0.0 | 0.00 | 0.00 | 0.00 | 59 | 1068.9 |
| 20260906155242 | 20 | 157 | 0.0 | 0.0 | 0.00 | 0.00 | 0.00 | 59 | 1068.9 |
| 20260906155113 | 20 | 180 | 9.7 | 0.0 | 0.00 | 0.00 | 0.00 | 60 | 1068.9 |
| 20260906154944 | 20 | 180 | 0.0 | 0.0 | 0.00 | 0.00 | 0.00 | 59 | 1069.0 |
| 20260906154822 | 20 | 157 | 0.0 | 0.0 | 0.00 | 0.00 | 0.00 | 59 | 1069.0 |
| 20260906154644 | 20 | 180 | 3.2 | 0.0 | 0.00 | 0.00 | 0.00 | 59 | 1069.0 |
| 20260906154515 | 20 | 157 | 6.4 | 0.0 | 0.00 | 0.00 | 0.00 | 59 | 1069.1 |
| 20260906154401 | 20 | 157 | 11.3 | 0.0 | 0.00 | 0.00 | 0.00 | 59 | 1069.0 |
| 20260906154248 | 20 | 157 | 9.7 | 0.0 | 0.00 | 0.00 | 0.00 | 59 | 1069.0 |
| 20260906154125 | 20 | 180 | 4.8 | 0.0 | 0.00 | 0.00 | 0.00 | 59 | 1069.0 |
| 20260906154006 | 20 | 157 | 0.0 | 0.0 | 0.00 | 0.00 | 0.00 | 59 | 1069.0 |
| 20260906153900 | 20 | 180 | 0.0 | 0.0 | 0.00 | 0.00 | 0.00 | 60 | 1069.0 |
| 20260906153737 | 20 | 180 | 0.0 | 0.0 | 0.00 | 0.00 | 0.00 | 59 | 1069.0 |
| 20260906153619 | 20 | 180 | 0.0 | 0.0 | 0.00 | 0.00 | 0.00 | 59 | 1068.9 |
| 20260906153505 | 20 | 157 | 0.0 | 0.0 | 0.00 | 0.00 | 0.00 | 60 | 1068.9 |
| 20260906153352 | 20 | 157 | 0.0 | 0.0 | 0.00 | 0.00 | 0.00 | 60 | 1069.0 |
| 20260906153245 | 20 | 180 | 0.0 | 0.0 | 0.00 | 0.00 | 0.00 | 59 | 1069.0 |
| 20260906153132 | 20 | 157 | 0.0 | 0.0 | 0.00 | 0.00 | 0.00 | 60 | 1069.0 |
| 20260906153011 | 20 | 157 | 6.4 | 0.0 | 0.00 | 0.00 | 0.00 | 59 | 1069.0 |
| 20260906152850 | 20 | 180 | 0.0 | 0.0 | 0.00 | 0.00 | 0.00 | 59 | 1069.1 |
| 20260906152739 | 20 | 157 | 0.0 | 0.0 | 0.00 | 0.00 | 0.00 | 59 | 1069.1 |
| 20260906152626 | 20 | 157 | 0.0 | 0.0 | 0.00 | 0.00 | 0.00 | 59 | 1069.1 |
| 20260906152519 | 20 | 157 | 0.0 | 0.0 | 0.00 | 0.00 | 0.00 | 58 | 1069.2 |
| 20260906152350 | 20 | 157 | 0.0 | 0.0 | 0.00 | 0.00 | 0.00 | 58 | 1069.3 |
| 20260906152237 | 20 | 157 | 0.0 | 0.0 | 0.00 | 0.00 | 0.00 | 58 | 1069.1 |
| 20260906152122 | 20 | 157 | 0.0 | 0.0 | 0.00 | 0.00 | 0.00 | 58 | 1069.1 |
| 20260906152011 | 20 | 157 | 0.0 | 0.0 | 0.00 | 0.00 | 0.00 | 58 | 1069.2 |
| 20260906151851 | 20 | 180 | 0.0 | 0.0 | 0.00 | 0.00 | 0.00 | 58 | 1069.0 |
| 20260906151736 | 20 | 157 | 0.0 | 0.0 | 0.00 | 0.00 | 0.00 | 58 | 1069.0 |
| 20260906151621 | 20 | 135 | 3.2 | 0.0 | 0.00 | 0.00 | 0.00 | 58 | 1069.1 |
| 20260906151450 | 20 | 202 | 0.0 | 0.0 | 0.00 | 0.00 | 0.00 | 57 | 1069.1 |
| 20260906151336 | 20 | 202 | 4.8 | 0.0 | 0.00 | 0.00 | 0.00 | 57 | 1069.0 |
| 20260906151209 | 20 | 180 | 8.0 | 0.0 | 0.00 | 0.00 | 0.00 | 58 | 1069.0 |
| 20260906151102 | 21 | 157 | 0.0 | 0.0 | 0.00 | 0.00 | 0.00 | 58 | 1069.1 |
| 20260906150949 | 21 | 202 | 0.0 | 0.0 | 0.00 | 0.00 | 0.00 | 58 | 1069.1 |
| 20260906150820 | 21 | 157 | 0.0 | 0.0 | 0.00 | 0.00 | 0.00 | 58 | 1069.2 |
| 20260906150706 | 21 | 157 | 0.0 | 0.0 | 0.00 | 0.00 | 0.00 | 58 | 1069.2 |
| 20260906150546 | 21 | 157 | 0.0 | 0.0 | 0.00 | 0.00 | 0.00 | 58 | 1069.2 |
| 20260906150433 | 21 | 180 | 9.7 | 0.0 | 0.00 | 0.00 | 0.00 | 57 | 1069.3 |
| 20260906150320 | 21 | 180 | 0.0 | 0.0 | 0.00 | 0.00 | 0.00 | 57 | 1069.3 |
| 20260906150157 | 21 | 180 | 0.0 | 0.0 | 0.00 | 0.00 | 0.00 | 57 | 1069.3 |
| 20260906150044 | 21 | 180 | 0.0 | 0.0 | 0.00 | 0.00 | 0.00 | 57 | 1069.4 |
| 20260906145930 | 21 | 157 | 0.0 | 0.0 | 0.00 | 0.00 | 0.00 | 56 | 1069.4 |
| 20260906145801 | 21 | 180 | 0.0 | 0.0 | 0.00 | 0.00 | 0.00 | 56 | 1069.3 |
| 20260906145650 | 21 | 157 | 0.0 | 0.0 | 0.00 | 0.00 | 0.00 | 56 | 1069.4 |
| 20260906145543 | 21 | 180 | 0.0 | 0.0 | 0.00 | 0.00 | 0.00 | 56 | 1069.4 |
| 20260906145421 | 21 | 157 | 0.0 | 0.0 | 0.00 | 0.00 | 0.00 | 57 | 1069.4 |
| 20260906145300 | 21 | 157 | 0.0 | 0.0 | 0.00 | 0.00 | 0.00 | 57 | 1069.3 |
| 20260906145148 | 21 | 157 | 0.0 | 0.0 | 0.00 | 0.00 | 0.00 | 57 | 1069.4 |
| 20260906145026 | 21 | 180 | 0.0 | 0.0 | 0.00 | 0.00 | 0.00 | 57 | 1069.4 |
| 20260906144913 | 21 | 180 | 0.0 | 0.0 | 0.00 | 0.00 | 0.00 | 57 | 1069.4 |
| 20260906144754 | 21 | 180 | 0.0 | 0.0 | 0.00 | 0.00 | 0.00 | 57 | 1069.4 |
| 20260906144649 | 21 | 180 | 0.0 | 0.0 | 0.00 | 0.00 | 0.00 | 57 | 1069.4 |
| 20260906144542 | 21 | 202 | 0.0 | 0.0 | 0.00 | 0.00 | 0.00 | 57 | 1069.3 |
| 20260906144429 | 21 | 202 | 0.0 | 0.0 | 0.00 | 0.00 | 0.00 | 57 | 1069.4 |
| 20260906144315 | 21 | 157 | 6.4 | 0.0 | 0.00 | 0.00 | 0.00 | 58 | 1069.5 |
| 20260906144138 | 21 | 157 | 0.0 | 0.0 | 0.00 | 0.00 | 0.00 | 58 | 1069.5 |
| 20260906144025 | 21 | 180 | 0.0 | 0.0 | 0.00 | 0.00 | 0.00 | 58 | 1069.5 |
| 20260906143921 | 21 | 180 | 0.0 | 0.0 | 0.00 | 0.00 | 0.00 | 57 | 1069.4 |
| 20260906143808 | 21 | 180 | 0.0 | 0.0 | 0.00 | 0.00 | 0.00 | 57 | 1069.3 |
| 20260906143652 | 21 | 180 | 0.0 | 0.0 | 0.00 | 0.00 | 0.00 | 57 | 1069.4 |
| 20260906143538 | 21 | 180 | 0.0 | 0.0 | 0.00 | 0.00 | 0.00 | 57 | 1069.4 |
| 20260906143409 | 21 | 180 | 0.0 | 0.0 | 0.00 | 0.00 | 0.00 | 57 | 1069.5 |
| 20260906143256 | 21 | 180 | 0.0 | 0.0 | 0.00 | 0.00 | 0.00 | 57 | 1069.5 |
| 20260906143150 | 21 | 180 | 4.8 | 0.0 | 0.00 | 0.00 | 0.00 | 57 | 1069.5 |
| 20260906143045 | 21 | 180 | 8.0 | 0.0 | 0.00 | 0.00 | 0.00 | 56 | 1069.5 |
| 20260906142933 | 21 | 225 | 0.0 | 0.0 | 0.00 | 0.00 | 0.00 | 56 | 1069.5 |
| 20260906142827 | 21 | 180 | 0.0 | 0.0 | 0.00 | 0.00 | 0.00 | 56 | 1069.5 |
| 20260906142715 | 21 | 202 | 0.0 | 0.0 | 0.00 | 0.00 | 0.00 | 56 | 1069.5 |
| 20260906142608 | 21 | 157 | 9.7 | 0.0 | 0.00 | 0.00 | 0.00 | 55 | 1069.5 |
| 20260906142447 | 21 | 202 | 8.0 | 0.0 | 0.00 | 0.00 | 0.00 | 55 | 1069.5 |
| 20260906142321 | 21 | 202 | 12.9 | 0.0 | 0.00 | 0.00 | 0.00 | 55 | 1069.5 |
| 20260906142213 | 21 | 202 | 14.5 | 0.0 | 0.00 | 0.00 | 0.00 | 55 | 1069.5 |
| 20260906142052 | 21 | 180 | 3.2 | 0.0 | 0.00 | 0.00 | 0.00 | 55 | 1069.5 |
| 20260906141930 | 21 | 180 | 3.2 | 0.0 | 0.00 | 0.00 | 0.00 | 54 | 1069.6 |
| 20260906141818 | 21 | 157 | 0.0 | 0.0 | 0.00 | 0.00 | 0.00 | 53 | 1069.6 |
| 20260906141705 | 22 | 180 | 0.0 | 0.0 | 0.00 | 0.00 | 0.00 | 53 | 1069.5 |
| 20260906141543 | 22 | 157 | 0.0 | 0.0 | 0.00 | 0.00 | 0.00 | 54 | 1069.6 |
| 20260906141430 | 22 | 180 | 0.0 | 0.0 | 0.00 | 0.00 | 0.00 | 54 | 1069.6 |
| 20260906141318 | 22 | 157 | 0.0 | 0.0 | 0.00 | 0.00 | 0.00 | 54 | 1069.6 |
| 20260906141212 | 22 | 225 | 0.0 | 0.0 | 0.00 | 0.00 | 0.00 | 54 | 1069.7 |
| 20260906141050 | 22 | 180 | 0.0 | 0.0 | 0.00 | 0.00 | 0.00 | 55 | 1069.7 |
| 20260906140923 | 22 | 157 | 0.0 | 0.0 | 0.00 | 0.00 | 0.00 | 55 | 1069.7 |
| 20260906140817 | 22 | 180 | 0.0 | 0.0 | 0.00 | 0.00 | 0.00 | 55 | 1069.7 |
| 20260906140703 | 22 | 202 | 0.0 | 0.0 | 0.00 | 0.00 | 0.00 | 54 | 1069.7 |
| 20260906140534 | 22 | 180 | 0.0 | 0.0 | 0.00 | 0.00 | 0.00 | 55 | 1069.7 |
| 20260906140413 | 22 | 180 | 0.0 | 0.0 | 0.00 | 0.00 | 0.00 | 55 | 1069.6 |
| 20260906140307 | 22 | 157 | 9.7 | 0.0 | 0.00 | 0.00 | 0.00 | 55 | 1069.6 |
| 20260906140148 | 22 | 180 | 9.7 | 0.0 | 0.00 | 0.00 | 0.00 | 54 | 1069.7 |
| 20260906140036 | 22 | 270 | 0.0 | 0.0 | 0.00 | 0.00 | 0.00 | 54 | 1069.7 |
| 20260906135930 | 21 | 225 | 3.2 | 0.0 | 0.00 | 0.00 | 0.00 | 54 | 1069.7 |
| 20260906135825 | 21 | 202 | 6.4 | 0.0 | 0.00 | 0.00 | 0.00 | 54 | 1069.7 |
| 20260906135718 | 21 | 202 | 0.0 | 0.0 | 0.00 | 0.00 | 0.00 | 54 | 1069.7 |
| 20260906135605 | 21 | 225 | 0.0 | 0.0 | 0.00 | 0.00 | 0.00 | 54 | 1069.7 |
| 20260906135452 | 21 | 225 | 17.7 | 0.0 | 0.00 | 0.00 | 0.00 | 55 | 1069.8 |
| 20260906135339 | 21 | 180 | 0.0 | 0.0 | 0.00 | 0.00 | 0.00 | 54 | 1069.8 |
| 20260906135217 | 21 | 180 | 0.0 | 0.0 | 0.00 | 0.00 | 0.00 | 54 | 1069.8 |
| 20260906135104 | 21 | 180 | 12.9 | 0.0 | 0.00 | 0.00 | 0.00 | 53 | 1069.7 |
| 20260906134937 | 22 | 157 | 0.0 | 0.0 | 0.00 | 0.00 | 0.00 | 53 | 1069.7 |
| 20260906134822 | 22 | 157 | 4.8 | 0.0 | 0.00 | 0.00 | 0.00 | 53 | 1069.7 |
| 20260906134654 | 22 | 157 | 9.7 | 0.0 | 0.00 | 0.00 | 0.00 | 53 | 1069.7 |
| 20260906134549 | 22 | 157 | 12.9 | 0.0 | 0.00 | 0.00 | 0.00 | 53 | 1069.8 |
| 20260906134444 | 22 | 157 | 0.0 | 0.0 | 0.00 | 0.00 | 0.00 | 53 | 1069.8 |
| 20260906134333 | 22 | 202 | 4.8 | 0.0 | 0.00 | 0.00 | 0.00 | 53 | 1069.7 |
| 20260906134226 | 21 | 180 | 0.0 | 0.0 | 0.00 | 0.00 | 0.00 | 53 | 1069.7 |
| 20260906134113 | 21 | 225 | 9.7 | 0.0 | 0.00 | 0.00 | 0.00 | 54 | 1069.8 |
| 20260906133952 | 21 | 180 | 0.0 | 0.0 | 0.00 | 0.00 | 0.00 | 54 | 1069.8 |
| 20260906133842 | 21 | 180 | 4.8 | 0.0 | 0.00 | 0.00 | 0.00 | 54 | 1069.8 |
| 20260906133737 | 21 | 135 | 4.8 | 0.0 | 0.00 | 0.00 | 0.00 | 54 | 1069.7 |
| 20260906133630 | 21 | 202 | 0.0 | 0.0 | 0.00 | 0.00 | 0.00 | 54 | 1069.7 |
| 20260906133510 | 21 | 225 | 6.4 | 0.0 | 0.00 | 0.00 | 0.00 | 54 | 1069.7 |
| 20260906133348 | 21 | 180 | 0.0 | 0.0 | 0.00 | 0.00 | 0.00 | 54 | 1069.7 |
| 20260906133228 | 21 | 157 | 0.0 | 0.0 | 0.00 | 0.00 | 0.00 | 54 | 1069.7 |
| 20260906133051 | 21 | 157 | 8.0 | 0.0 | 0.00 | 0.00 | 0.00 | 54 | 1069.7 |
| 20260906132921 | 21 | 157 | 0.0 | 0.0 | 0.00 | 0.00 | 0.00 | 54 | 1069.7 |
| 20260906132747 | 21 | 180 | 6.4 | 0.0 | 0.00 | 0.00 | 0.00 | 54 | 1069.7 |
| 20260906132630 | 21 | 180 | 0.0 | 0.0 | 0.00 | 0.00 | 0.00 | 54 | 1069.8 |
| 20260906132517 | 21 | 180 | 0.0 | 0.0 | 0.00 | 0.00 | 0.00 | 53 | 1069.7 |
| 20260906132406 | 21 | 180 | 6.4 | 0.0 | 0.00 | 0.00 | 0.00 | 53 | 1069.7 |
| 20260906132301 | 21 | 157 | 0.0 | 0.0 | 0.00 | 0.00 | 0.00 | 53 | 1069.7 |
| 20260906132155 | 21 | 202 | 0.0 | 0.0 | 0.00 | 0.00 | 0.00 | 53 | 1069.8 |
| 20260906132044 | 21 | 202 | 6.4 | 0.0 | 0.00 | 0.00 | 0.00 | 52 | 1069.8 |
| 20260906131930 | 22 | 157 | 9.7 | 0.0 | 0.00 | 0.00 | 0.00 | 52 | 1069.8 |
| 20260906131816 | 22 | 157 | 6.4 | 0.0 | 0.00 | 0.00 | 0.00 | 53 | 1069.8 |
| 20260906131704 | 22 | 202 | 0.0 | 0.0 | 0.00 | 0.00 | 0.00 | 53 | 1069.8 |
| 20260906131551 | 22 | 157 | 0.0 | 0.0 | 0.00 | 0.00 | 0.00 | 53 | 1069.8 |
| 20260906131437 | 22 | 157 | 8.0 | 0.0 | 0.00 | 0.00 | 0.00 | 53 | 1069.7 |
| 20260906131318 | 21 | 157 | 9.7 | 0.0 | 0.00 | 0.00 | 0.00 | 54 | 1069.8 |
| 20260906131212 | 21 | 157 | 3.2 | 0.0 | 0.00 | 0.00 | 0.00 | 54 | 1069.8 |
| 20260906131050 | 21 | 180 | 0.0 | 0.0 | 0.00 | 0.00 | 0.00 | 53 | 1069.8 |
| 20260906130933 | 21 | 157 | 0.0 | 0.0 | 0.00 | 0.00 | 0.00 | 53 | 1069.8 |
| 20260906130820 | 21 | 157 | 0.0 | 0.0 | 0.00 | 0.00 | 0.00 | 52 | 1069.8 |
| 20260906130717 | 21 | 157 | 0.0 | 0.0 | 0.00 | 0.00 | 0.00 | 52 | 1069.8 |
| 20260906130604 | 22 | 202 | 6.4 | 0.0 | 0.00 | 0.00 | 0.00 | 52 | 1069.8 |
| 20260906130449 | 22 | 180 | 12.9 | 0.0 | 0.00 | 0.00 | 0.00 | 52 | 1069.8 |
| 20260906130344 | 22 | 202 | 9.7 | 0.0 | 0.00 | 0.00 | 0.00 | 52 | 1069.8 |
| 20260906130232 | 22 | 180 | 3.2 | 0.0 | 0.00 | 0.00 | 0.00 | 51 | 1069.9 |
| 20260906130119 | 22 | 247 | 1.6 | 0.0 | 0.00 | 0.00 | 0.00 | 51 | 1069.9 |
| 20260906130016 | 22 | 202 | 9.7 | 0.0 | 0.00 | 0.00 | 0.00 | 50 | 1069.8 |
| 20260906125908 | 22 | 180 | 0.0 | 0.0 | 0.00 | 0.00 | 0.00 | 50 | 1069.8 |
| 20260906125755 | 23 | 202 | 0.0 | 0.0 | 0.00 | 0.00 | 0.00 | 49 | 1069.8 |
| 20260906125634 | 23 | 180 | 8.0 | 0.0 | 0.00 | 0.00 | 0.00 | 49 | 1069.9 |
| 20260906125521 | 23 | 225 | 0.0 | 0.0 | 0.00 | 0.00 | 0.00 | 50 | 1069.8 |
| 20260906125407 | 23 | 270 | 0.0 | 0.0 | 0.00 | 0.00 | 0.00 | 49 | 1069.8 |
| 20260906125254 | 23 | 270 | 0.0 | 0.0 | 0.00 | 0.00 | 0.00 | 49 | 1069.8 |
| 20260906125134 | 23 | 180 | 0.0 | 0.0 | 0.00 | 0.00 | 0.00 | 48 | 1069.9 |
| 20260906125022 | 23 | 292 | 8.0 | 0.0 | 0.00 | 0.00 | 0.00 | 48 | 1069.8 |
| 20260906124917 | 23 | 270 | 0.0 | 0.0 | 0.00 | 0.00 | 0.00 | 48 | 1069.9 |
| 20260906124810 | 23 | 202 | 0.0 | 0.0 | 0.00 | 0.00 | 0.00 | 47 | 1069.8 |
| 20260906124656 | 23 | 180 | 0.0 | 0.0 | 0.00 | 0.00 | 0.00 | 47 | 1069.9 |
| 20260906124543 | 23 | 202 | 6.4 | 0.0 | 0.00 | 0.00 | 0.00 | 47 | 1069.9 |
| 20260906124423 | 23 | 180 | 0.0 | 0.0 | 0.00 | 0.00 | 0.00 | 47 | 1069.9 |
| 20260906124301 | 23 | 225 | 0.0 | 0.0 | 0.00 | 0.00 | 0.00 | 47 | 1069.8 |
| 20260906124140 | 24 | 247 | 0.0 | 0.0 | 0.00 | 0.00 | 0.00 | 46 | 1069.9 |
| 20260906124027 | 24 | 270 | 0.0 | 0.0 | 0.00 | 0.00 | 0.00 | 45 | 1069.9 |
| 20260906123923 | 25 | 225 | 6.4 | 0.0 | 0.00 | 0.00 | 0.00 | 46 | 1069.9 |
| 20260906123818 | 25 | 157 | 8.0 | 0.0 | 0.00 | 0.00 | 0.00 | 46 | 1070.0 |
| 20260906123656 | 25 | 157 | 8.0 | 0.0 | 0.00 | 0.00 | 0.00 | 48 | 1069.9 |
| 20260906123535 | 24 | 247 | 0.0 | 0.0 | 0.00 | 0.00 | 0.00 | 48 | 1069.9 |
| 20260906123417 | 24 | 270 | 0.0 | 0.0 | 0.00 | 0.00 | 0.00 | 48 | 1069.9 |
| 20260906123309 | 24 | 270 | 0.0 | 0.0 | 0.00 | 0.00 | 0.00 | 47 | 1069.9 |
| 20260906123156 | 24 | 225 | 0.0 | 0.0 | 0.00 | 0.00 | 0.00 | 47 | 1070.0 |
| 20260906123044 | 24 | 247 | 0.0 | 0.0 | 0.00 | 0.00 | 0.00 | 47 | 1069.9 |
| 20260906122913 | 24 | 270 | 0.0 | 0.0 | 0.00 | 0.00 | 0.00 | 48 | 1070.0 |
| 20260906122801 | 24 | 270 | 9.7 | 0.0 | 0.00 | 0.00 | 0.00 | 47 | 1070.1 |
| 20260906122655 | 24 | 202 | 0.0 | 0.0 | 0.00 | 0.00 | 0.00 | 47 | 1070.1 |
| 20260906122544 | 24 | 247 | 8.0 | 0.0 | 0.00 | 0.00 | 0.00 | 47 | 1070.1 |
| 20260906122437 | 24 | 247 | 6.4 | 0.0 | 0.00 | 0.00 | 0.00 | 47 | 1070.1 |
| 20260906122316 | 24 | 180 | 0.0 | 0.0 | 0.00 | 0.00 | 0.00 | 47 | 1070.1 |
| 20260906122146 | 24 | 202 | 6.4 | 0.0 | 0.00 | 0.00 | 0.00 | 46 | 1070.2 |
| 20260906122033 | 24 | 157 | 14.5 | 0.0 | 0.00 | 0.00 | 0.00 | 46 | 1070.1 |
| 20260906121920 | 25 | 157 | 16.1 | 0.0 | 0.00 | 0.00 | 0.00 | 47 | 1070.2 |
| 20260906121801 | 25 | 180 | 3.2 | 0.0 | 0.00 | 0.00 | 0.00 | 48 | 1070.1 |
| 20260906121646 | 24 | 202 | 0.0 | 0.0 | 0.00 | 0.00 | 0.00 | 50 | 1070.1 |
| 20260906121533 | 23 | 180 | 0.0 | 0.0 | 0.00 | 0.00 | 0.00 | 50 | 1070.1 |
| 20260906121429 | 23 | 225 | 0.0 | 0.0 | 0.00 | 0.00 | 0.00 | 50 | 1070.1 |
| 20260906121322 | 23 | 202 | 0.0 | 0.0 | 0.00 | 0.00 | 0.00 | 49 | 1070.2 |
| 20260906121203 | 23 | 225 | 0.0 | 0.0 | 0.00 | 0.00 | 0.00 | 49 | 1070.2 |
| 20260906121051 | 23 | 292 | 0.0 | 0.0 | 0.00 | 0.00 | 0.00 | 49 | 1070.2 |
| 20260906120943 | 23 | 202 | 0.0 | 0.0 | 0.00 | 0.00 | 0.00 | 49 | 1070.4 |
| 20260906120824 | 23 | 247 | 6.4 | 0.0 | 0.00 | 0.00 | 0.00 | 49 | 1070.4 |
| 20260906120716 | 23 | 157 | 6.4 | 0.0 | 0.00 | 0.00 | 0.00 | 49 | 1070.4 |
| 20260906120603 | 23 | 225 | 6.4 | 0.0 | 0.00 | 0.00 | 0.00 | 48 | 1070.3 |
| 20260906120444 | 23 | 292 | 0.0 | 0.0 | 0.00 | 0.00 | 0.00 | 48 | 1070.3 |
| 20260906120338 | 23 | 157 | 0.0 | 0.0 | 0.00 | 0.00 | 0.00 | 47 | 1070.3 |
| 20260906120233 | 23 | 202 | 0.0 | 0.0 | 0.00 | 0.00 | 0.00 | 47 | 1070.2 |
| 20260906120119 | 23 | 157 | 0.0 | 0.0 | 0.00 | 0.00 | 0.00 | 48 | 1070.3 |
| 20260906120006 | 23 | 202 | 8.0 | 0.0 | 0.00 | 0.00 | 0.00 | 49 | 1070.4 |
| 20260906115845 | 23 | 202 | 16.1 | 0.0 | 0.00 | 0.00 | 0.00 | 51 | 1070.4 |
| 20260906115733 | 23 | 225 | 0.0 | 0.0 | 0.00 | 0.00 | 0.00 | 51 | 1070.3 |
| 20260906115607 | 23 | 225 | 6.4 | 0.0 | 0.00 | 0.00 | 0.00 | 52 | 1070.4 |
| 20260906115459 | 22 | 247 | 0.0 | 0.0 | 0.00 | 0.00 | 0.00 | 52 | 1070.4 |
| 20260906115348 | 22 | 270 | 0.0 | 0.0 | 0.00 | 0.00 | 0.00 | 52 | 1070.4 |
| 20260906115241 | 22 | 247 | 0.0 | 0.0 | 0.00 | 0.00 | 0.00 | 51 | 1070.5 |
| 20260906115122 | 22 | 247 | 0.0 | 0.0 | 0.00 | 0.00 | 0.00 | 50 | 1070.5 |
| 20260906115008 | 23 | 270 | 6.4 | 0.0 | 0.00 | 0.00 | 0.00 | 50 | 1070.4 |
| 20260906114847 | 23 | 247 | 9.7 | 0.0 | 0.00 | 0.00 | 0.00 | 49 | 1070.5 |
| 20260906114734 | 23 | 247 | 8.0 | 0.0 | 0.00 | 0.00 | 0.00 | 48 | 1070.5 |
| 20260906114621 | 23 | 270 | 0.0 | 0.0 | 0.00 | 0.00 | 0.00 | 48 | 1070.4 |
| 20260906114501 | 24 | 247 | 8.0 | 0.0 | 0.00 | 0.00 | 0.00 | 47 | 1070.5 |
| 20260906114355 | 25 | 270 | 0.0 | 0.0 | 0.00 | 0.00 | 0.00 | 47 | 1070.5 |
| 20260906114234 | 25 | 270 | 0.0 | 0.0 | 0.00 | 0.00 | 0.00 | 47 | 1070.6 |
| 20260906114129 | 25 | 270 | 0.0 | 0.0 | 0.00 | 0.00 | 0.00 | 47 | 1070.6 |
| 20260906114006 | 25 | 247 | 0.0 | 0.0 | 0.00 | 0.00 | 0.00 | 46 | 1070.5 |
| 20260906113846 | 25 | 202 | 0.0 | 0.0 | 0.00 | 0.00 | 0.00 | 47 | 1070.6 |
| 20260906113719 | 25 | 225 | 0.0 | 0.0 | 0.00 | 0.00 | 0.00 | 47 | 1070.6 |
| 20260906113613 | 25 | 292 | 0.0 | 0.0 | 0.00 | 0.00 | 0.00 | 47 | 1070.6 |
| 20260906113500 | 25 | 247 | 0.0 | 0.0 | 0.00 | 0.00 | 0.00 | 46 | 1070.5 |
| 20260906113354 | 25 | 247 | 0.0 | 0.0 | 0.00 | 0.00 | 0.00 | 46 | 1070.5 |
| 20260906113250 | 25 | 270 | 8.0 | 0.0 | 0.00 | 0.00 | 0.00 | 46 | 1070.5 |
| 20260906113143 | 25 | 292 | 11.3 | 0.0 | 0.00 | 0.00 | 0.00 | 46 | 1070.5 |
| 20260906113015 | 25 | 292 | 9.7 | 0.0 | 0.00 | 0.00 | 0.00 | 46 | 1070.5 |
| 20260906112903 | 25 | 247 | 0.0 | 0.0 | 0.00 | 0.00 | 0.00 | 46 | 1070.6 |
| 20260906112757 | 25 | 157 | 0.0 | 0.0 | 0.00 | 0.00 | 0.00 | 47 | 1070.5 |
| 20260906112645 | 25 | 270 | 0.0 | 0.0 | 0.00 | 0.00 | 0.00 | 46 | 1070.5 |
| 20260906112538 | 25 | 157 | 9.7 | 0.0 | 0.00 | 0.00 | 0.00 | 46 | 1070.5 |
| 20260906112428 | 25 | 247 | 4.8 | 0.0 | 0.00 | 0.00 | 0.00 | 46 | 1070.5 |
| 20260906112320 | 25 | 270 | 3.2 | 0.0 | 0.00 | 0.00 | 0.00 | 47 | 1070.5 |
| 20260906112208 | 24 | 157 | 0.0 | 0.0 | 0.00 | 0.00 | 0.00 | 46 | 1070.5 |
| 20260906111950 | 24 | 247 | 0.0 | 0.0 | 0.00 | 0.00 | 0.00 | 46 | 1070.5 |
| 20260906111840 | 25 | 247 | 0.0 | 0.0 | 0.00 | 0.00 | 0.00 | 45 | 1070.5 |
| 20260906111724 | 25 | 270 | 0.0 | 0.0 | 0.00 | 0.00 | 0.00 | 46 | 1070.5 |
| 20260906111610 | 25 | 270 | 4.8 | 0.0 | 0.00 | 0.00 | 0.00 | 46 | 1070.6 |
| 20260906111457 | 25 | 225 | 3.2 | 0.0 | 0.00 | 0.00 | 0.00 | 47 | 1070.5 |
| 20260906111352 | 24 | 225 | 4.8 | 0.0 | 0.00 | 0.00 | 0.00 | 48 | 1070.5 |
| 20260906111247 | 24 | 202 | 0.0 | 0.0 | 0.00 | 0.00 | 0.00 | 47 | 1070.5 |
| 20260906111134 | 24 | 202 | 6.4 | 0.0 | 0.00 | 0.00 | 0.00 | 47 | 1070.6 |
| 20260906111020 | 24 | 157 | 3.2 | 0.0 | 0.00 | 0.00 | 0.00 | 46 | 1070.6 |
| 20260906110908 | 24 | 202 | 6.4 | 0.0 | 0.00 | 0.00 | 0.00 | 46 | 1070.6 |
| 20260906110755 | 24 | 225 | 14.5 | 0.0 | 0.00 | 0.00 | 0.00 | 46 | 1070.6 |
| 20260906110649 | 25 | 247 | 14.5 | 0.0 | 0.00 | 0.00 | 0.00 | 45 | 1070.7 |
| 20260906110536 | 25 | 270 | 0.0 | 0.0 | 0.00 | 0.00 | 0.00 | 45 | 1070.7 |
| 20260906110423 | 25 | 202 | 12.9 | 0.0 | 0.00 | 0.00 | 0.00 | 45 | 1070.6 |
| 20260906110310 | 25 | 202 | 12.9 | 0.0 | 0.00 | 0.00 | 0.00 | 46 | 1070.6 |
| 20260906110158 | 25 | 157 | 6.4 | 0.0 | 0.00 | 0.00 | 0.00 | 45 | 1070.5 |
| 20260906110052 | 25 | 135 | 8.0 | 0.0 | 0.00 | 0.00 | 0.00 | 46 | 1070.6 |
| 20260906105938 | 25 | 225 | 8.0 | 0.0 | 0.00 | 0.00 | 0.00 | 47 | 1070.6 |
| 20260906105819 | 25 | 247 | 0.0 | 0.0 | 0.00 | 0.00 | 0.00 | 46 | 1070.7 |
| 20260906105653 | 25 | 225 | 0.0 | 0.0 | 0.00 | 0.00 | 0.00 | 46 | 1070.6 |
| 20260906105531 | 25 | 202 | 0.0 | 0.0 | 0.00 | 0.00 | 0.00 | 44 | 1070.6 |
| 20260906105418 | 25 | 225 | 8.0 | 0.0 | 0.00 | 0.00 | 0.00 | 44 | 1070.6 |
| 20260906105255 | 26 | 180 | 17.7 | 0.0 | 0.00 | 0.00 | 0.00 | 45 | 1070.6 |
| 20260906105142 | 26 | 225 | 0.0 | 0.0 | 0.00 | 0.00 | 0.00 | 45 | 1070.7 |
| 20260906105037 | 26 | 202 | 1.6 | 0.0 | 0.00 | 0.00 | 0.00 | 45 | 1070.6 |
| 20260906104931 | 26 | 247 | 16.1 | 0.0 | 0.00 | 0.00 | 0.00 | 46 | 1070.6 |
| 20260906104810 | 26 | 157 | 6.4 | 0.0 | 0.00 | 0.00 | 0.00 | 47 | 1070.8 |
| 20260906104650 | 26 | 270 | 0.0 | 0.0 | 0.00 | 0.00 | 0.00 | 47 | 1070.7 |
| 20260906104545 | 26 | 315 | 0.0 | 0.0 | 0.00 | 0.00 | 0.00 | 48 | 1070.8 |
| 20260906104440 | 26 | 157 | 0.0 | 0.0 | 0.00 | 0.00 | 0.00 | 47 | 1070.7 |
| 20260906104335 | 25 | 202 | 0.0 | 0.0 | 0.00 | 0.00 | 0.00 | 48 | 1070.8 |
| 20260906104230 | 25 | 247 | 9.7 | 0.0 | 0.00 | 0.00 | 0.00 | 48 | 1070.7 |
| 20260906104125 | 25 | 270 | 0.0 | 0.0 | 0.00 | 0.00 | 0.00 | 49 | 1070.8 |
| 20260906104013 | 25 | 270 | 0.0 | 0.0 | 0.00 | 0.00 | 0.00 | 49 | 1070.8 |
| 20260906103900 | 25 | 157 | 0.0 | 0.0 | 0.00 | 0.00 | 0.00 | 49 | 1070.8 |
| 20260906103745 | 25 | 270 | 0.0 | 0.0 | 0.00 | 0.00 | 0.00 | 49 | 1070.9 |
| 20260906103640 | 25 | 202 | 0.0 | 0.0 | 0.00 | 0.00 | 0.00 | 48 | 1070.9 |
| 20260906103526 | 25 | 270 | 0.0 | 0.0 | 0.00 | 0.00 | 0.00 | 48 | 1070.9 |
| 20260906103405 | 25 | 202 | 8.0 | 0.0 | 0.00 | 0.00 | 0.00 | 49 | 1070.9 |
| 20260906103244 | 25 | 202 | 8.0 | 0.0 | 0.00 | 0.00 | 0.00 | 49 | 1070.9 |
| 20260906103134 | 25 | 202 | 9.7 | 0.0 | 0.00 | 0.00 | 0.00 | 49 | 1070.8 |
| 20260906103020 | 24 | 270 | 0.0 | 0.0 | 0.00 | 0.00 | 0.00 | 49 | 1071.0 |
| 20260906102913 | 24 | 270 | 4.8 | 0.0 | 0.00 | 0.00 | 0.00 | 50 | 1070.9 |
| 20260906102800 | 24 | 247 | 0.0 | 0.0 | 0.00 | 0.00 | 0.00 | 49 | 1070.9 |
| 20260906102647 | 24 | 247 | 0.0 | 0.0 | 0.00 | 0.00 | 0.00 | 49 | 1070.9 |
| 20260906102542 | 24 | 202 | 0.0 | 0.0 | 0.00 | 0.00 | 0.00 | 48 | 1070.9 |
| 20260906102421 | 24 | 202 | 9.7 | 0.0 | 0.00 | 0.00 | 0.00 | 48 | 1071.0 |
| 20260906102259 | 24 | 270 | 0.0 | 0.0 | 0.00 | 0.00 | 0.00 | 49 | 1070.9 |
| 20260906102138 | 24 | 225 | 0.0 | 0.0 | 0.00 | 0.00 | 0.00 | 49 | 1070.9 |
| 20260906102017 | 24 | 247 | 0.0 | 0.0 | 0.00 | 0.00 | 0.00 | 49 | 1070.9 |
| 20260906101912 | 24 | 247 | 0.0 | 0.0 | 0.00 | 0.00 | 0.00 | 49 | 1070.9 |
| 20260906101807 | 24 | 202 | 11.3 | 0.0 | 0.00 | 0.00 | 0.00 | 48 | 1070.9 |
| 20260906101654 | 24 | 225 | 0.0 | 0.0 | 0.00 | 0.00 | 0.00 | 47 | 1070.9 |
| 20260906101533 | 24 | 157 | 11.3 | 0.0 | 0.00 | 0.00 | 0.00 | 47 | 1070.9 |
| 20260906101428 | 24 | 225 | 0.0 | 0.0 | 0.00 | 0.00 | 0.00 | 48 | 1071.0 |
| 20260906101315 | 24 | 247 | 0.0 | 0.0 | 0.00 | 0.00 | 0.00 | 48 | 1071.0 |
| 20260906101210 | 24 | 270 | 0.0 | 0.0 | 0.00 | 0.00 | 0.00 | 48 | 1070.9 |
| 20260906101105 | 25 | 270 | 3.2 | 0.0 | 0.00 | 0.00 | 0.00 | 47 | 1071.0 |
| 20260906100959 | 25 | 247 | 14.5 | 0.0 | 0.00 | 0.00 | 0.00 | 48 | 1070.9 |
| 20260906100846 | 25 | 292 | 0.0 | 0.0 | 0.00 | 0.00 | 0.00 | 48 | 1070.9 |
| 20260906100725 | 25 | 292 | 16.1 | 0.0 | 0.00 | 0.00 | 0.00 | 47 | 1071.0 |
| 20260906100612 | 25 | 270 | 0.0 | 0.0 | 0.00 | 0.00 | 0.00 | 46 | 1071.0 |
| 20260906100507 | 25 | 270 | 6.4 | 0.0 | 0.00 | 0.00 | 0.00 | 47 | 1071.0 |
| 20260906100354 | 25 | 225 | 6.4 | 0.0 | 0.00 | 0.00 | 0.00 | 47 | 1071.0 |
| 20260906100233 | 25 | 180 | 12.9 | 0.0 | 0.00 | 0.00 | 0.00 | 47 | 1071.0 |
| 20260906100128 | 25 | 225 | 4.8 | 0.0 | 0.00 | 0.00 | 0.00 | 48 | 1071.0 |
| 20260906100006 | 25 | 202 | 0.0 | 0.0 | 0.00 | 0.00 | 0.00 | 49 | 1071.0 |
| 20260906095844 | 25 | 157 | 0.0 | 0.0 | 0.00 | 0.00 | 0.00 | 50 | 1071.0 |
| 20260906095731 | 25 | 202 | 0.0 | 0.0 | 0.00 | 0.00 | 0.00 | 50 | 1070.9 |
| 20260906095610 | 25 | 247 | 4.8 | 0.0 | 0.00 | 0.00 | 0.00 | 50 | 1071.0 |
| 20260906095450 | 25 | 270 | 0.0 | 0.0 | 0.00 | 0.00 | 0.00 | 49 | 1070.9 |
| 20260906095344 | 24 | 247 | 11.3 | 0.0 | 0.00 | 0.00 | 0.00 | 49 | 1070.9 |
| 20260906095231 | 24 | 247 | 3.2 | 0.0 | 0.00 | 0.00 | 0.00 | 49 | 1070.9 |
| 20260906095110 | 24 | 247 | 6.4 | 0.0 | 0.00 | 0.00 | 0.00 | 48 | 1070.9 |
| 20260906094957 | 24 | 247 | 9.7 | 0.0 | 0.00 | 0.00 | 0.00 | 48 | 1071.0 |
| 20260906094845 | 25 | 270 | 11.3 | 0.0 | 0.00 | 0.00 | 0.00 | 47 | 1070.9 |
| 20260906094731 | 25 | 292 | 12.9 | 0.0 | 0.00 | 0.00 | 0.00 | 48 | 1070.9 |
| 20260906094627 | 25 | 247 | 12.9 | 0.0 | 0.00 | 0.00 | 0.00 | 49 | 1071.0 |
| 20260906094520 | 24 | 292 | 3.2 | 0.0 | 0.00 | 0.00 | 0.00 | 50 | 1071.1 |
| 20260906094400 | 24 | 247 | 8.0 | 0.0 | 0.00 | 0.00 | 0.00 | 50 | 1070.9 |
| 20260906094255 | 24 | 270 | 6.4 | 0.0 | 0.00 | 0.00 | 0.00 | 50 | 1071.0 |
| 20260906094149 | 24 | 270 | 3.2 | 0.0 | 0.00 | 0.00 | 0.00 | 49 | 1070.9 |
| 20260906094029 | 24 | 225 | 11.3 | 0.0 | 0.00 | 0.00 | 0.00 | 50 | 1071.1 |
| 20260906093915 | 24 | 225 | 9.7 | 0.0 | 0.00 | 0.00 | 0.00 | 51 | 1071.0 |
| 20260906093753 | 23 | 247 | 3.2 | 0.0 | 0.00 | 0.00 | 0.00 | 52 | 1071.0 |
| 20260906093633 | 23 | 270 | 3.2 | 0.0 | 0.00 | 0.00 | 0.00 | 53 | 1071.0 |
| 20260906093520 | 23 | 247 | 9.7 | 0.0 | 0.00 | 0.00 | 0.00 | 54 | 1071.1 |
| 20260906093415 | 23 | 247 | 8.0 | 0.0 | 0.00 | 0.00 | 0.00 | 54 | 1071.0 |
| 20260906093302 | 23 | 292 | 12.9 | 0.0 | 0.00 | 0.00 | 0.00 | 54 | 1071.1 |
| 20260906093148 | 22 | 270 | 9.7 | 0.0 | 0.00 | 0.00 | 0.00 | 56 | 1071.1 |
| 20260906093027 | 22 | 247 | 3.2 | 0.0 | 0.00 | 0.00 | 0.00 | 56 | 1071.1 |
| 20260906092908 | 22 | 180 | 22.5 | 0.0 | 0.00 | 0.00 | 0.00 | 57 | 1071.1 |
| 20260906092802 | 22 | 225 | 3.2 | 0.0 | 0.00 | 0.00 | 0.00 | 58 | 1071.1 |
| 20260906092656 | 21 | 202 | 8.0 | 0.0 | 0.00 | 0.00 | 0.00 | 59 | 1071.0 |
| 20260906092535 | 21 | 270 | 8.0 | 0.0 | 0.00 | 0.00 | 0.00 | 60 | 1071.1 |
| 20260906092430 | 21 | 247 | 4.8 | 0.0 | 0.00 | 0.00 | 0.00 | 60 | 1071.1 |
| 20260906092317 | 20 | 270 | 3.2 | 0.0 | 0.00 | 0.00 | 0.00 | 60 | 1071.1 |
| 20260906092203 | 20 | 225 | 0.0 | 0.0 | 0.00 | 0.00 | 0.00 | 59 | 1071.1 |
| 20260906092053 | 20 | 270 | 3.2 | 0.0 | 0.00 | 0.00 | 0.00 | 59 | 1071.1 |
| 20260906091947 | 21 | 270 | 3.2 | 0.0 | 0.00 | 0.00 | 0.00 | 58 | 1071.2 |
| 20260906091841 | 21 | 292 | 8.0 | 0.0 | 0.00 | 0.00 | 0.00 | 58 | 1071.2 |
| 20260906091737 | 21 | 247 | 1.6 | 0.0 | 0.00 | 0.00 | 0.00 | 57 | 1071.3 |
| 20260906091616 | 21 | 270 | 9.7 | 0.0 | 0.00 | 0.00 | 0.00 | 56 | 1071.2 |
| 20260906091454 | 22 | 247 | 9.7 | 0.0 | 0.00 | 0.00 | 0.00 | 55 | 1071.2 |
| 20260906091317 | 22 | 270 | 8.0 | 0.0 | 0.00 | 0.00 | 0.00 | 55 | 1071.2 |
| 20260906091203 | 22 | 180 | 6.4 | 0.0 | 0.00 | 0.00 | 0.00 | 55 | 1071.2 |
| 20260906091049 | 22 | 247 | 6.4 | 0.0 | 0.00 | 0.00 | 0.00 | 55 | 1071.2 |
| 20260906090938 | 22 | 247 | 3.2 | 0.0 | 0.00 | 0.00 | 0.00 | 55 | 1071.2 |
| 20260906090830 | 22 | 247 | 6.4 | 0.0 | 0.00 | 0.00 | 0.00 | 55 | 1071.2 |
| 20260906090710 | 22 | 247 | 0.0 | 0.0 | 0.00 | 0.00 | 0.00 | 54 | 1071.2 |
| 20260906090550 | 22 | 247 | 4.8 | 0.0 | 0.00 | 0.00 | 0.00 | 54 | 1071.3 |
| 20260906090443 | 22 | 270 | 6.4 | 0.0 | 0.00 | 0.00 | 0.00 | 54 | 1071.2 |
| 20260906090322 | 22 | 270 | 0.0 | 0.0 | 0.00 | 0.00 | 0.00 | 54 | 1071.3 |
| 20260906090208 | 23 | 247 | 8.0 | 0.0 | 0.00 | 0.00 | 0.00 | 54 | 1071.2 |
| 20260906090056 | 23 | 270 | 3.2 | 0.0 | 0.00 | 0.00 | 0.00 | 53 | 1071.3 |
| 20260906085950 | 23 | 202 | 0.0 | 0.0 | 0.00 | 0.00 | 0.00 | 54 | 1071.3 |
| 20260906085829 | 23 | 270 | 9.7 | 0.0 | 0.00 | 0.00 | 0.00 | 54 | 1071.3 |
| 20260906085724 | 23 | 247 | 4.8 | 0.0 | 0.00 | 0.00 | 0.00 | 53 | 1071.2 |
| 20260906085555 | 23 | 270 | 9.7 | 0.0 | 0.00 | 0.00 | 0.00 | 51 | 1071.2 |
| 20260906085442 | 23 | 247 | 6.4 | 0.0 | 0.00 | 0.00 | 0.00 | 51 | 1071.2 |
| 20260906085337 | 23 | 247 | 9.7 | 0.0 | 0.00 | 0.00 | 0.00 | 50 | 1071.2 |
| 20260906085215 | 24 | 247 | 3.2 | 0.0 | 0.00 | 0.00 | 0.00 | 49 | 1071.2 |
| 20260906085055 | 25 | 225 | 8.0 | 0.0 | 0.00 | 0.00 | 0.00 | 50 | 1071.2 |
| 20260906084950 | 25 | 270 | 9.7 | 0.0 | 0.00 | 0.00 | 0.00 | 50 | 1071.3 |
| 20260906084844 | 25 | 270 | 4.8 | 0.0 | 0.00 | 0.00 | 0.00 | 48 | 1071.2 |
| 20260906084733 | 25 | 270 | 4.8 | 0.0 | 0.00 | 0.00 | 0.00 | 49 | 1071.2 |
| 20260906084619 | 25 | 270 | 0.0 | 0.0 | 0.00 | 0.00 | 0.00 | 48 | 1071.2 |
| 20260906084508 | 25 | 247 | 11.3 | 0.0 | 0.00 | 0.00 | 0.00 | 49 | 1071.2 |
| 20260906084402 | 25 | 292 | 0.0 | 0.0 | 0.00 | 0.00 | 0.00 | 49 | 1071.1 |
| 20260906084256 | 25 | 292 | 11.3 | 0.0 | 0.00 | 0.00 | 0.00 | 49 | 1071.2 |
| 20260906084150 | 25 | 270 | 9.7 | 0.0 | 0.00 | 0.00 | 0.00 | 47 | 1071.1 |
| 20260906084038 | 25 | 270 | 4.8 | 0.0 | 0.00 | 0.00 | 0.00 | 47 | 1071.1 |
| 20260906083932 | 25 | 292 | 11.3 | 0.0 | 0.00 | 0.00 | 0.00 | 49 | 1071.1 |
| 20260906083821 | 25 | 270 | 3.2 | 0.0 | 0.00 | 0.00 | 0.00 | 49 | 1071.1 |
| 20260906083705 | 25 | 202 | 8.0 | 0.0 | 0.00 | 0.00 | 0.00 | 49 | 1071.1 |
| 20260906083545 | 25 | 225 | 11.3 | 0.0 | 0.00 | 0.00 | 0.00 | 49 | 1071.1 |
| 20260906083440 | 25 | 225 | 6.4 | 0.0 | 0.00 | 0.00 | 0.00 | 49 | 1071.2 |
| 20260906083333 | 25 | 270 | 4.8 | 0.0 | 0.00 | 0.00 | 0.00 | 47 | 1071.1 |
| 20260906083220 | 25 | 247 | 12.9 | 0.0 | 0.00 | 0.00 | 0.00 | 48 | 1071.1 |
| 20260906083100 | 25 | 270 | 9.7 | 0.0 | 0.00 | 0.00 | 0.00 | 48 | 1071.1 |
| 20260906082947 | 25 | 247 | 8.0 | 0.0 | 0.00 | 0.00 | 0.00 | 49 | 1071.1 |
| 20260906082842 | 25 | 292 | 6.4 | 0.0 | 0.00 | 0.00 | 0.00 | 48 | 1071.0 |
| 20260906082729 | 25 | 247 | 9.7 | 0.0 | 0.00 | 0.00 | 0.00 | 48 | 1071.0 |
| 20260906082607 | 26 | 247 | 4.8 | 0.0 | 0.00 | 0.00 | 0.00 | 48 | 1071.1 |
| 20260906082454 | 26 | 270 | 6.4 | 0.0 | 0.00 | 0.00 | 0.00 | 48 | 1071.1 |
| 20260906082341 | 26 | 247 | 8.0 | 0.0 | 0.00 | 0.00 | 0.00 | 49 | 1071.1 |
| 20260906082228 | 26 | 270 | 0.0 | 0.0 | 0.00 | 0.00 | 0.00 | 48 | 1071.1 |
| 20260906082115 | 25 | 270 | 0.0 | 0.0 | 0.00 | 0.00 | 0.00 | 49 | 1071.1 |
| 20260906082010 | 25 | 270 | 4.8 | 0.0 | 0.00 | 0.00 | 0.00 | 49 | 1071.1 |
| 20260906081857 | 25 | 202 | 1.6 | 0.0 | 0.00 | 0.00 | 0.00 | 49 | 1071.1 |
| 20260906081751 | 25 | 270 | 3.2 | 0.0 | 0.00 | 0.00 | 0.00 | 49 | 1071.0 |
| 20260906081631 | 25 | 247 | 4.8 | 0.0 | 0.00 | 0.00 | 0.00 | 49 | 1071.0 |
| 20260906081518 | 25 | 270 | 8.0 | 0.0 | 0.00 | 0.00 | 0.00 | 49 | 1071.0 |
| 20260906081405 | 25 | 270 | 3.2 | 0.0 | 0.00 | 0.00 | 0.00 | 49 | 1071.0 |
| 20260906081300 | 25 | 247 | 8.0 | 0.0 | 0.00 | 0.00 | 0.00 | 48 | 1071.0 |
| 20260906081153 | 25 | 292 | 11.3 | 0.0 | 0.00 | 0.00 | 0.00 | 48 | 1071.0 |
| 20260906081041 | 25 | 247 | 4.8 | 0.0 | 0.00 | 0.00 | 0.00 | 48 | 1071.1 |
| 20260906080922 | 25 | 247 | 9.7 | 0.0 | 0.00 | 0.00 | 0.00 | 48 | 1071.0 |
| 20260906080815 | 26 | 247 | 9.7 | 0.0 | 0.00 | 0.00 | 0.00 | 48 | 1071.0 |
| 20260906080701 | 26 | 202 | 8.0 | 0.0 | 0.00 | 0.00 | 0.00 | 48 | 1071.0 |
| 20260906080540 | 26 | 247 | 8.0 | 0.0 | 0.00 | 0.00 | 0.00 | 49 | 1071.0 |
| 20260906080428 | 25 | 225 | 4.8 | 0.0 | 0.00 | 0.00 | 0.00 | 50 | 1071.0 |
| 20260906080323 | 25 | 247 | 1.6 | 0.0 | 0.00 | 0.00 | 0.00 | 50 | 1070.9 |
| 20260906080210 | 25 | 270 | 3.2 | 0.0 | 0.00 | 0.00 | 0.00 | 50 | 1070.9 |
| 20260906080058 | 25 | 270 | 3.2 | 0.0 | 0.00 | 0.00 | 0.00 | 50 | 1070.9 |
| 20260906075954 | 25 | 247 | 8.0 | 0.0 | 0.00 | 0.00 | 0.00 | 51 | 1070.9 |
| 20260906075846 | 25 | 247 | 4.8 | 0.0 | 0.00 | 0.00 | 0.00 | 51 | 1070.9 |
| 20260906075734 | 25 | 247 | 8.0 | 0.0 | 0.00 | 0.00 | 0.00 | 52 | 1070.9 |
| 20260906075621 | 25 | 180 | 0.0 | 0.0 | 0.00 | 0.00 | 0.00 | 52 | 1070.9 |
| 20260906075501 | 25 | 270 | 0.0 | 0.0 | 0.00 | 0.00 | 0.00 | 52 | 1070.9 |
| 20260906075340 | 25 | 247 | 3.2 | 0.0 | 0.00 | 0.00 | 0.00 | 52 | 1070.9 |
| 20260906075229 | 24 | 247 | 3.2 | 0.0 | 0.00 | 0.00 | 0.00 | 53 | 1070.9 |
| 20260906075117 | 24 | 270 | 9.7 | 0.0 | 0.00 | 0.00 | 0.00 | 54 | 1070.9 |
| 20260906075010 | 24 | 247 | 6.4 | 0.0 | 0.00 | 0.00 | 0.00 | 54 | 1070.9 |
| 20260906074857 | 24 | 247 | 3.2 | 0.0 | 0.00 | 0.00 | 0.00 | 53 | 1070.9 |
| 20260906074746 | 23 | 270 | 4.8 | 0.0 | 0.00 | 0.00 | 0.00 | 54 | 1070.9 |
| 20260906074640 | 23 | 225 | 6.4 | 0.0 | 0.00 | 0.00 | 0.00 | 54 | 1070.9 |
| 20260906074534 | 23 | 247 | 0.0 | 0.0 | 0.00 | 0.00 | 0.00 | 54 | 1070.8 |
| 20260906074421 | 23 | 270 | 3.2 | 0.0 | 0.00 | 0.00 | 0.00 | 54 | 1070.8 |
| 20260906074316 | 23 | 225 | 6.4 | 0.0 | 0.00 | 0.00 | 0.00 | 55 | 1070.8 |
| 20260906074211 | 23 | 247 | 6.4 | 0.0 | 0.00 | 0.00 | 0.00 | 56 | 1070.8 |
| 20260906074050 | 23 | 270 | 0.0 | 0.0 | 0.00 | 0.00 | 0.00 | 56 | 1070.8 |
| 20260906073937 | 23 | 225 | 3.2 | 0.0 | 0.00 | 0.00 | 0.00 | 56 | 1070.9 |
| 20260906073823 | 23 | 202 | 6.4 | 0.0 | 0.00 | 0.00 | 0.00 | 56 | 1070.8 |
| 20260906073710 | 23 | 225 | 4.8 | 0.0 | 0.00 | 0.00 | 0.00 | 56 | 1070.9 |
| 20260906073557 | 23 | 202 | 4.8 | 0.0 | 0.00 | 0.00 | 0.00 | 56 | 1070.8 |
| 20260906073444 | 23 | 180 | 6.4 | 0.0 | 0.00 | 0.00 | 0.00 | 56 | 1070.8 |
| 20260906073331 | 23 | 202 | 6.4 | 0.0 | 0.00 | 0.00 | 0.00 | 57 | 1070.7 |
| 20260906073202 | 23 | 157 | 4.8 | 0.0 | 0.00 | 0.00 | 0.00 | 57 | 1070.8 |
| 20260906073049 | 23 | 202 | 9.7 | 0.0 | 0.00 | 0.00 | 0.00 | 57 | 1070.7 |
| 20260906072943 | 23 | 180 | 0.0 | 0.0 | 0.00 | 0.00 | 0.00 | 57 | 1070.6 |
| 20260906072832 | 23 | 180 | 3.2 | 0.0 | 0.00 | 0.00 | 0.00 | 58 | 1070.6 |
| 20260906072719 | 23 | 180 | 0.0 | 0.0 | 0.00 | 0.00 | 0.00 | 58 | 1070.6 |
| 20260906072611 | 23 | 247 | 6.4 | 0.0 | 0.00 | 0.00 | 0.00 | 58 | 1070.6 |
| 20260906072459 | 22 | 180 | 0.0 | 0.0 | 0.00 | 0.00 | 0.00 | 59 | 1070.6 |
| 20260906072345 | 22 | 225 | 6.4 | 0.0 | 0.00 | 0.00 | 0.00 | 59 | 1070.7 |
| 20260906072225 | 22 | 180 | 3.2 | 0.0 | 0.00 | 0.00 | 0.00 | 60 | 1070.7 |
| 20260906072105 | 22 | 180 | 6.4 | 0.0 | 0.00 | 0.00 | 0.00 | 59 | 1070.7 |
| 20260906072000 | 22 | 202 | 6.4 | 0.0 | 0.00 | 0.00 | 0.00 | 59 | 1070.5 |
| 20260906071854 | 22 | 202 | 6.4 | 0.0 | 0.00 | 0.00 | 0.00 | 60 | 1070.5 |
| 20260906071742 | 22 | 202 | 3.2 | 0.0 | 0.00 | 0.00 | 0.00 | 61 | 1070.5 |
| 20260906071631 | 22 | 157 | 8.0 | 0.0 | 0.00 | 0.00 | 0.00 | 61 | 1070.6 |
| 20260906071525 | 22 | 225 | 0.0 | 0.0 | 0.00 | 0.00 | 0.00 | 62 | 1070.5 |
| 20260906071412 | 22 | 180 | 0.0 | 0.0 | 0.00 | 0.00 | 0.00 | 61 | 1070.5 |
| 20260906071242 | 21 | 157 | 3.2 | 0.0 | 0.00 | 0.00 | 0.00 | 62 | 1070.5 |
| 20260906071129 | 22 | 202 | 3.2 | 0.0 | 0.00 | 0.00 | 0.00 | 61 | 1070.5 |
| 20260906071016 | 22 | 202 | 4.8 | 0.0 | 0.00 | 0.00 | 0.00 | 62 | 1070.5 |
| 20260906070857 | 22 | 202 | 9.7 | 0.0 | 0.00 | 0.00 | 0.00 | 62 | 1070.5 |
| 20260906070752 | 21 | 202 | 1.6 | 0.0 | 0.00 | 0.00 | 0.00 | 63 | 1070.5 |
| 20260906070644 | 21 | 180 | 3.2 | 0.0 | 0.00 | 0.00 | 0.00 | 64 | 1070.5 |
| 20260906070531 | 21 | 202 | 8.0 | 0.0 | 0.00 | 0.00 | 0.00 | 64 | 1070.5 |
| 20260906070418 | 21 | 135 | 0.0 | 0.0 | 0.00 | 0.00 | 0.00 | 65 | 1070.6 |
| 20260906070258 | 21 | 225 | 6.4 | 0.0 | 0.00 | 0.00 | 0.00 | 65 | 1070.5 |
| 20260906070150 | 21 | 180 | 3.2 | 0.0 | 0.00 | 0.00 | 0.00 | 65 | 1070.5 |
| 20260906070015 | 20 | 202 | 6.4 | 0.0 | 0.00 | 0.00 | 0.00 | 65 | 1070.5 |
| 20260906065908 | 20 | 202 | 8.0 | 0.0 | 0.00 | 0.00 | 0.00 | 65 | 1070.5 |
| 20260906065748 | 20 | 180 | 4.8 | 0.0 | 0.00 | 0.00 | 0.00 | 66 | 1070.5 |
| 20260906065642 | 20 | 202 | 9.7 | 0.0 | 0.00 | 0.00 | 0.00 | 66 | 1070.4 |
| 20260906065513 | 20 | 202 | 0.0 | 0.0 | 0.00 | 0.00 | 0.00 | 67 | 1070.5 |
| 20260906065359 | 20 | 180 | 4.8 | 0.0 | 0.00 | 0.00 | 0.00 | 67 | 1070.5 |
| 20260906065230 | 20 | 202 | 3.2 | 0.0 | 0.00 | 0.00 | 0.00 | 67 | 1070.4 |
| 20260906065101 | 20 | 202 | 4.8 | 0.0 | 0.00 | 0.00 | 0.00 | 68 | 1070.4 |
| 20260906064940 | 20 | 180 | 4.8 | 0.0 | 0.00 | 0.00 | 0.00 | 69 | 1070.5 |
| 20260906064829 | 19 | 180 | 0.0 | 0.0 | 0.00 | 0.00 | 0.00 | 68 | 1070.5 |
| 20260906064722 | 19 | 202 | 6.4 | 0.0 | 0.00 | 0.00 | 0.00 | 69 | 1070.4 |
| 20260906064617 | 19 | 202 | 6.4 | 0.0 | 0.00 | 0.00 | 0.00 | 69 | 1070.5 |
| 20260906064455 | 19 | 225 | 8.0 | 0.0 | 0.00 | 0.00 | 0.00 | 69 | 1070.5 |
| 20260906064343 | 19 | 202 | 9.7 | 0.0 | 0.00 | 0.00 | 0.00 | 68 | 1070.5 |
| 20260906064215 | 19 | 225 | 4.8 | 0.0 | 0.00 | 0.00 | 0.00 | 69 | 1070.5 |
| 20260906064037 | 19 | 180 | 9.7 | 0.0 | 0.00 | 0.00 | 0.00 | 69 | 1070.4 |
| 20260906063900 | 19 | 202 | 4.8 | 0.0 | 0.00 | 0.00 | 0.00 | 68 | 1070.4 |
| 20260906063723 | 19 | 202 | 0.0 | 0.0 | 0.00 | 0.00 | 0.00 | 69 | 1070.4 |
| 20260906063616 | 19 | 202 | 4.8 | 0.0 | 0.00 | 0.00 | 0.00 | 68 | 1070.4 |
| 20260906063502 | 19 | 202 | 0.0 | 0.0 | 0.00 | 0.00 | 0.00 | 69 | 1070.4 |
| 20260906063341 | 19 | 180 | 9.7 | 0.0 | 0.00 | 0.00 | 0.00 | 69 | 1070.4 |
| 20260906063208 | 18 | 202 | 0.0 | 0.0 | 0.00 | 0.00 | 0.00 | 70 | 1070.4 |
| 20260906063046 | 18 | 180 | 0.0 | 0.0 | 0.00 | 0.00 | 0.00 | 70 | 1070.3 |
| 20260906062925 | 18 | 180 | 0.0 | 0.0 | 0.00 | 0.00 | 0.00 | 71 | 1070.5 |
| 20260906062811 | 18 | 180 | 0.0 | 0.0 | 0.00 | 0.00 | 0.00 | 72 | 1070.4 |
| 20260906062655 | 18 | 180 | 0.0 | 0.0 | 0.00 | 0.00 | 0.00 | 73 | 1070.4 |
| 20260906062542 | 18 | 180 | 0.0 | 0.0 | 0.00 | 0.00 | 0.00 | 73 | 1070.3 |
| 20260906062428 | 18 | 180 | 0.0 | 0.0 | 0.00 | 0.00 | 0.00 | 73 | 1070.4 |
| 20260906062313 | 17 | 180 | 0.0 | 0.0 | 0.00 | 0.00 | 0.00 | 74 | 1070.4 |
| 20260906062204 | 17 | 180 | 0.0 | 0.0 | 0.00 | 0.00 | 0.00 | 75 | 1070.4 |
| 20260906062057 | 17 | 157 | 3.2 | 0.0 | 0.00 | 0.00 | 0.00 | 75 | 1070.4 |
| 20260906061952 | 17 | 180 | 0.0 | 0.0 | 0.00 | 0.00 | 0.00 | 76 | 1070.4 |
| 20260906061831 | 16 | 180 | 0.0 | 0.0 | 0.00 | 0.00 | 0.00 | 76 | 1070.4 |
| 20260906061725 | 16 | 180 | 0.0 | 0.0 | 0.00 | 0.00 | 0.00 | 76 | 1070.4 |
| 20260906061614 | 16 | 180 | 6.4 | 0.0 | 0.00 | 0.00 | 0.00 | 77 | 1070.4 |
| 20260906061509 | 16 | 180 | 9.7 | 0.0 | 0.00 | 0.00 | 0.00 | 77 | 1070.4 |
| 20260906061404 | 16 | 225 | 8.0 | 0.0 | 0.00 | 0.00 | 0.00 | 77 | 1070.3 |
| 20260906061256 | 16 | 157 | 3.2 | 0.0 | 0.00 | 0.00 | 0.00 | 77 | 1070.3 |
| 20260906061145 | 16 | 180 | 9.7 | 0.0 | 0.00 | 0.00 | 0.00 | 78 | 1070.3 |
| 20260906061039 | 16 | 180 | 4.8 | 0.0 | 0.00 | 0.00 | 0.00 | 78 | 1070.3 |
| 20260906060934 | 16 | 157 | 1.6 | 0.0 | 0.00 | 0.00 | 0.00 | 78 | 1070.3 |
| 20260906060828 | 15 | 157 | 6.4 | 0.0 | 0.00 | 0.00 | 0.00 | 78 | 1070.3 |
| 20260906060723 | 15 | 180 | 8.0 | 0.0 | 0.00 | 0.00 | 0.00 | 78 | 1070.3 |
| 20260906060618 | 15 | 157 | 8.0 | 0.0 | 0.00 | 0.00 | 0.00 | 79 | 1070.2 |
| 20260906060447 | 15 | 180 | 4.8 | 0.0 | 0.00 | 0.00 | 0.00 | 79 | 1070.2 |
| 20260906060335 | 15 | 180 | 3.2 | 0.0 | 0.00 | 0.00 | 0.00 | 79 | 1070.3 |
| 20260906060228 | 15 | 157 | 6.4 | 0.0 | 0.00 | 0.00 | 0.00 | 79 | 1070.3 |
| 20260906060107 | 15 | 157 | 4.8 | 0.0 | 0.00 | 0.00 | 0.00 | 80 | 1070.3 |
| 20260906055944 | 15 | 157 | 4.8 | 0.0 | 0.00 | 0.00 | 0.00 | 80 | 1070.3 |
| 20260906055827 | 15 | 180 | 4.8 | 0.0 | 0.00 | 0.00 | 0.00 | 79 | 1070.3 |
| 20260906055721 | 15 | 157 | 8.0 | 0.0 | 0.00 | 0.00 | 0.00 | 80 | 1070.3 |
| 20260906055550 | 15 | 157 | 0.0 | 0.0 | 0.00 | 0.00 | 0.00 | 80 | 1070.3 |
| 20260906055437 | 14 | 180 | 0.0 | 0.0 | 0.00 | 0.00 | 0.00 | 80 | 1070.3 |
| 20260906055324 | 14 | 202 | 9.7 | 0.0 | 0.00 | 0.00 | 0.00 | 80 | 1070.3 |
| 20260906055202 | 14 | 180 | 6.4 | 0.0 | 0.00 | 0.00 | 0.00 | 80 | 1070.2 |
| 20260906055041 | 14 | 180 | 11.3 | 0.0 | 0.00 | 0.00 | 0.00 | 79 | 1070.2 |
| 20260906054920 | 14 | 157 | 9.7 | 0.0 | 0.00 | 0.00 | 0.00 | 79 | 1070.2 |
| 20260906054759 | 14 | 157 | 8.0 | 0.0 | 0.00 | 0.00 | 0.00 | 79 | 1070.2 |
| 20260906054645 | 14 | 157 | 0.0 | 0.0 | 0.00 | 0.00 | 0.00 | 79 | 1070.2 |
| 20260906054527 | 14 | 157 | 9.7 | 0.0 | 0.00 | 0.00 | 0.00 | 79 | 1070.2 |
| 20260906054420 | 14 | 157 | 6.4 | 0.0 | 0.00 | 0.00 | 0.00 | 79 | 1070.2 |
| 20260906054306 | 13 | 180 | 8.0 | 0.0 | 0.00 | 0.00 | 0.00 | 79 | 1070.2 |
| 20260906054154 | 13 | 180 | 4.8 | 0.0 | 0.00 | 0.00 | 0.00 | 79 | 1070.2 |
| 20260906054048 | 13 | 180 | 4.8 | 0.0 | 0.00 | 0.00 | 0.00 | 78 | 1070.2 |
| 20260906053943 | 13 | 180 | 8.0 | 0.0 | 0.00 | 0.00 | 0.00 | 78 | 1070.2 |
| 20260906053836 | 13 | 180 | 6.4 | 0.0 | 0.00 | 0.00 | 0.00 | 78 | 1070.2 |
| 20260906053721 | 13 | 157 | 0.0 | 0.0 | 0.00 | 0.00 | 0.00 | 78 | 1070.3 |
| 20260906053601 | 13 | 157 | 0.0 | 0.0 | 0.00 | 0.00 | 0.00 | 78 | 1070.3 |
| 20260906053439 | 13 | 180 | 0.0 | 0.0 | 0.00 | 0.00 | 0.00 | 78 | 1070.3 |
| 20260906053318 | 13 | 180 | 0.0 | 0.0 | 0.00 | 0.00 | 0.00 | 78 | 1070.3 |
| 20260906053205 | 13 | 180 | 0.0 | 0.0 | 0.00 | 0.00 | 0.00 | 78 | 1070.3 |
| 20260906053054 | 13 | 157 | 0.0 | 0.0 | 0.00 | 0.00 | 0.00 | 78 | 1070.3 |
| 20260906052941 | 13 | 157 | 0.0 | 0.0 | 0.00 | 0.00 | 0.00 | 78 | 1070.3 |
| 20260906052825 | 13 | 157 | 0.0 | 0.0 | 0.00 | 0.00 | 0.00 | 78 | 1070.3 |
| 20260906052647 | 13 | 157 | 0.0 | 0.0 | 0.00 | 0.00 | 0.00 | 78 | 1070.4 |
| 20260906052532 | 13 | 157 | 0.0 | 0.0 | 0.00 | 0.00 | 0.00 | 78 | 1070.3 |
| 20260906052402 | 13 | 157 | 0.0 | 0.0 | 0.00 | 0.00 | 0.00 | 78 | 1070.2 |
| 20260906052249 | 13 | 157 | 0.0 | 0.0 | 0.00 | 0.00 | 0.00 | 78 | 1070.2 |
| 20260906052134 | 13 | 180 | 0.0 | 0.0 | 0.00 | 0.00 | 0.00 | 78 | 1070.1 |
| 20260906052021 | 13 | 157 | 0.0 | 0.0 | 0.00 | 0.00 | 0.00 | 78 | 1070.2 |
| 20260906051908 | 13 | 157 | 3.2 | 0.0 | 0.00 | 0.00 | 0.00 | 79 | 1070.2 |
| 20260906051746 | 13 | 202 | 0.0 | 0.0 | 0.00 | 0.00 | 0.00 | 79 | 1070.2 |
| 20260906051627 | 13 | 337 | 0.0 | 0.0 | 0.00 | 0.00 | 0.00 | 79 | 1070.1 |
| 20260906051520 | 13 | 337 | 0.0 | 0.0 | 0.00 | 0.00 | 0.00 | 79 | 1070.1 |
| 20260906051359 | 13 | 337 | 0.0 | 0.0 | 0.00 | 0.00 | 0.00 | 79 | 1070.2 |
| 20260906051230 | 13 | 337 | 0.0 | 0.0 | 0.00 | 0.00 | 0.00 | 78 | 1070.2 |
| 20260906051108 | 13 | 337 | 0.0 | 0.0 | 0.00 | 0.00 | 0.00 | 78 | 1070.0 |
| 20260906050948 | 13 | 337 | 0.0 | 0.0 | 0.00 | 0.00 | 0.00 | 78 | 1070.1 |
| 20260906050835 | 13 | 337 | 0.0 | 0.0 | 0.00 | 0.00 | 0.00 | 78 | 1070.1 |
| 20260906050714 | 13 | 337 | 0.0 | 0.0 | 0.00 | 0.00 | 0.00 | 78 | 1070.1 |
| 20260906050601 | 13 | 337 | 0.0 | 0.0 | 0.00 | 0.00 | 0.00 | 78 | 1070.0 |
| 20260906050455 | 13 | 337 | 0.0 | 0.0 | 0.00 | 0.00 | 0.00 | 78 | 1070.0 |
| 20260906050349 | 13 | 337 | 0.0 | 0.0 | 0.00 | 0.00 | 0.00 | 78 | 1070.0 |
| 20260906050241 | 13 | 337 | 0.0 | 0.0 | 0.00 | 0.00 | 0.00 | 78 | 1070.0 |
| 20260906050112 | 13 | 337 | 0.0 | 0.0 | 0.00 | 0.00 | 0.00 | 78 | 1070.0 |
| 20260906045952 | 13 | 315 | 0.0 | 0.0 | 0.00 | 0.00 | 0.00 | 78 | 1070.0 |
| 20260906045831 | 13 | 315 | 0.0 | 0.0 | 0.00 | 0.00 | 0.00 | 78 | 1070.1 |
| 20260906045728 | 13 | 315 | 0.0 | 0.0 | 0.00 | 0.00 | 0.00 | 78 | 1070.1 |
| 20260906045620 | 13 | 315 | 0.0 | 0.0 | 0.00 | 0.00 | 0.00 | 78 | 1070.1 |
| 20260906045507 | 13 | 315 | 0.0 | 0.0 | 0.00 | 0.00 | 0.00 | 78 | 1070.1 |
| 20260906045356 | 13 | 315 | 0.0 | 0.0 | 0.00 | 0.00 | 0.00 | 78 | 1070.1 |
| 20260906045250 | 13 | 315 | 0.0 | 0.0 | 0.00 | 0.00 | 0.00 | 78 | 1070.1 |
| 20260906045146 | 13 | 315 | 0.0 | 0.0 | 0.00 | 0.00 | 0.00 | 78 | 1070.2 |
| 20260906045041 | 13 | 315 | 0.0 | 0.0 | 0.00 | 0.00 | 0.00 | 78 | 1070.1 |
| 20260906044926 | 13 | 292 | 0.0 | 0.0 | 0.00 | 0.00 | 0.00 | 78 | 1070.1 |
| 20260906044813 | 13 | 292 | 0.0 | 0.0 | 0.00 | 0.00 | 0.00 | 78 | 1070.1 |
| 20260906044700 | 13 | 292 | 0.0 | 0.0 | 0.00 | 0.00 | 0.00 | 78 | 1070.1 |
| 20260906044554 | 13 | 292 | 0.0 | 0.0 | 0.00 | 0.00 | 0.00 | 78 | 1070.1 |
| 20260906044440 | 13 | 292 | 0.0 | 0.0 | 0.00 | 0.00 | 0.00 | 78 | 1070.1 |
| 20260906044320 | 13 | 292 | 0.0 | 0.0 | 0.00 | 0.00 | 0.00 | 78 | 1070.1 |
| 20260906044209 | 13 | 270 | 0.0 | 0.0 | 0.00 | 0.00 | 0.00 | 77 | 1070.1 |
| 20260906044103 | 13 | 292 | 0.0 | 0.0 | 0.00 | 0.00 | 0.00 | 77 | 1070.1 |
| 20260906043948 | 13 | 0 | 0.0 | 0.0 | 0.00 | 0.00 | 0.00 | 77 | 1070.1 |
| 20260906043830 | 13 | 315 | 0.0 | 0.0 | 0.00 | 0.00 | 0.00 | 77 | 1070.1 |
| 20260906043725 | 13 | 315 | 0.0 | 0.0 | 0.00 | 0.00 | 0.00 | 77 | 1070.2 |
| 20260906043618 | 13 | 315 | 0.0 | 0.0 | 0.00 | 0.00 | 0.00 | 77 | 1070.2 |
| 20260906043505 | 13 | 292 | 0.0 | 0.0 | 0.00 | 0.00 | 0.00 | 77 | 1070.2 |
| 20260906043343 | 13 | 292 | 0.0 | 0.0 | 0.00 | 0.00 | 0.00 | 77 | 1070.3 |
| 20260906043222 | 13 | 315 | 0.0 | 0.0 | 0.00 | 0.00 | 0.00 | 77 | 1070.3 |
| 20260906043100 | 13 | 292 | 0.0 | 0.0 | 0.00 | 0.00 | 0.00 | 77 | 1070.3 |
| 20260906042947 | 13 | 292 | 0.0 | 0.0 | 0.00 | 0.00 | 0.00 | 77 | 1070.3 |
| 20260906042835 | 13 | 292 | 0.0 | 0.0 | 0.00 | 0.00 | 0.00 | 77 | 1070.3 |
| 20260906042730 | 13 | 292 | 0.0 | 0.0 | 0.00 | 0.00 | 0.00 | 77 | 1070.3 |
| 20260906042625 | 13 | 292 | 0.0 | 0.0 | 0.00 | 0.00 | 0.00 | 77 | 1070.2 |
| 20260906042503 | 13 | 292 | 0.0 | 0.0 | 0.00 | 0.00 | 0.00 | 77 | 1070.2 |
| 20260906042351 | 13 | 292 | 0.0 | 0.0 | 0.00 | 0.00 | 0.00 | 77 | 1070.2 |
| 20260906042245 | 13 | 292 | 0.0 | 0.0 | 0.00 | 0.00 | 0.00 | 77 | 1070.2 |
| 20260906042134 | 13 | 315 | 0.0 | 0.0 | 0.00 | 0.00 | 0.00 | 77 | 1070.1 |
| 20260906042026 | 13 | 292 | 0.0 | 0.0 | 0.00 | 0.00 | 0.00 | 77 | 1070.2 |
| 20260906041858 | 13 | 292 | 0.0 | 0.0 | 0.00 | 0.00 | 0.00 | 77 | 1070.2 |
| 20260906041752 | 13 | 292 | 0.0 | 0.0 | 0.00 | 0.00 | 0.00 | 77 | 1070.1 |
| 20260906041640 | 13 | 292 | 0.0 | 0.0 | 0.00 | 0.00 | 0.00 | 77 | 1070.1 |
| 20260906041534 | 13 | 337 | 0.0 | 0.0 | 0.00 | 0.00 | 0.00 | 77 | 1070.1 |
| 20260906041421 | 13 | 315 | 0.0 | 0.0 | 0.00 | 0.00 | 0.00 | 76 | 1070.1 |
| 20260906041308 | 13 | 315 | 0.0 | 0.0 | 0.00 | 0.00 | 0.00 | 76 | 1070.1 |
| 20260906041146 | 13 | 292 | 0.0 | 0.0 | 0.00 | 0.00 | 0.00 | 76 | 1070.1 |
| 20260906041027 | 13 | 315 | 0.0 | 0.0 | 0.00 | 0.00 | 0.00 | 76 | 1070.1 |
| 20260906040920 | 13 | 315 | 0.0 | 0.0 | 0.00 | 0.00 | 0.00 | 76 | 1070.2 |
| 20260906040806 | 13 | 337 | 0.0 | 0.0 | 0.00 | 0.00 | 0.00 | 76 | 1070.1 |
| 20260906040645 | 13 | 337 | 0.0 | 0.0 | 0.00 | 0.00 | 0.00 | 77 | 1070.1 |
| 20260906040539 | 13 | 315 | 0.0 | 0.0 | 0.00 | 0.00 | 0.00 | 77 | 1070.1 |
| 20260906040411 | 13 | 292 | 0.0 | 0.0 | 0.00 | 0.00 | 0.00 | 77 | 1070.1 |
| 20260906040305 | 13 | 315 | 4.8 | 0.0 | 0.00 | 0.00 | 0.00 | 77 | 1070.1 |
| 20260906040200 | 13 | 315 | 3.2 | 0.0 | 0.00 | 0.00 | 0.00 | 77 | 1070.1 |
| 20260906040049 | 13 | 315 | 0.0 | 0.0 | 0.00 | 0.00 | 0.00 | 77 | 1070.1 |
| 20260906035945 | 13 | 315 | 0.0 | 0.0 | 0.00 | 0.00 | 0.00 | 77 | 1070.0 |
| 20260906035821 | 13 | 315 | 0.0 | 0.0 | 0.00 | 0.00 | 0.00 | 77 | 1070.0 |
| 20260906035716 | 13 | 315 | 0.0 | 0.0 | 0.00 | 0.00 | 0.00 | 77 | 1070.0 |
| 20260906035603 | 13 | 315 | 0.0 | 0.0 | 0.00 | 0.00 | 0.00 | 77 | 1070.0 |
| 20260906035457 | 13 | 292 | 0.0 | 0.0 | 0.00 | 0.00 | 0.00 | 77 | 1070.1 |
| 20260906035336 | 13 | 270 | 0.0 | 0.0 | 0.00 | 0.00 | 0.00 | 77 | 1070.1 |
| 20260906035215 | 13 | 270 | 0.0 | 0.0 | 0.00 | 0.00 | 0.00 | 77 | 1070.1 |
| 20260906035048 | 13 | 292 | 0.0 | 0.0 | 0.00 | 0.00 | 0.00 | 77 | 1069.9 |
| 20260906034933 | 13 | 315 | 0.0 | 0.0 | 0.00 | 0.00 | 0.00 | 77 | 1070.0 |
| 20260906034827 | 13 | 292 | 0.0 | 0.0 | 0.00 | 0.00 | 0.00 | 77 | 1070.0 |
| 20260906034707 | 13 | 292 | 0.0 | 0.0 | 0.00 | 0.00 | 0.00 | 77 | 1069.9 |
| 20260906034556 | 13 | 292 | 0.0 | 0.0 | 0.00 | 0.00 | 0.00 | 77 | 1069.9 |
| 20260906034448 | 13 | 292 | 0.0 | 0.0 | 0.00 | 0.00 | 0.00 | 77 | 1069.9 |
| 20260906034335 | 13 | 292 | 0.0 | 0.0 | 0.00 | 0.00 | 0.00 | 76 | 1069.9 |
| 20260906034230 | 13 | 270 | 0.0 | 0.0 | 0.00 | 0.00 | 0.00 | 76 | 1069.9 |
| 20260906034111 | 13 | 292 | 0.0 | 0.0 | 0.00 | 0.00 | 0.00 | 77 | 1069.9 |
| 20260906034006 | 13 | 292 | 0.0 | 0.0 | 0.00 | 0.00 | 0.00 | 77 | 1069.9 |
| 20260906033901 | 13 | 315 | 0.0 | 0.0 | 0.00 | 0.00 | 0.00 | 77 | 1069.9 |
| 20260906033746 | 13 | 315 | 0.0 | 0.0 | 0.00 | 0.00 | 0.00 | 77 | 1070.0 |
| 20260906033632 | 13 | 270 | 0.0 | 0.0 | 0.00 | 0.00 | 0.00 | 77 | 1070.0 |
| 20260906033514 | 13 | 0 | 0.0 | 0.0 | 0.00 | 0.00 | 0.00 | 77 | 1070.0 |
| 20260906033359 | 13 | 315 | 0.0 | 0.0 | 0.00 | 0.00 | 0.00 | 77 | 1069.9 |
| 20260906033256 | 13 | 315 | 0.0 | 0.0 | 0.00 | 0.00 | 0.00 | 77 | 1069.9 |
| 20260906033148 | 13 | 315 | 0.0 | 0.0 | 0.00 | 0.00 | 0.00 | 76 | 1069.9 |
| 20260906033034 | 13 | 315 | 0.0 | 0.0 | 0.00 | 0.00 | 0.00 | 76 | 1069.8 |
| 20260906032915 | 13 | 292 | 0.0 | 0.0 | 0.00 | 0.00 | 0.00 | 76 | 1069.9 |
| 20260906032800 | 13 | 315 | 0.0 | 0.0 | 0.00 | 0.00 | 0.00 | 76 | 1069.9 |
| 20260906032647 | 13 | 292 | 0.0 | 0.0 | 0.00 | 0.00 | 0.00 | 76 | 1069.9 |
| 20260906032543 | 13 | 315 | 0.0 | 0.0 | 0.00 | 0.00 | 0.00 | 76 | 1069.8 |
| 20260906032438 | 13 | 315 | 0.0 | 0.0 | 0.00 | 0.00 | 0.00 | 76 | 1069.8 |
| 20260906032333 | 13 | 292 | 0.0 | 0.0 | 0.00 | 0.00 | 0.00 | 76 | 1069.9 |
| 20260906032227 | 13 | 292 | 0.0 | 0.0 | 0.00 | 0.00 | 0.00 | 76 | 1069.9 |
| 20260906032100 | 13 | 315 | 0.0 | 0.0 | 0.00 | 0.00 | 0.00 | 76 | 1069.8 |
| 20260906031953 | 13 | 292 | 0.0 | 0.0 | 0.00 | 0.00 | 0.00 | 76 | 1069.8 |
| 20260906031840 | 13 | 292 | 0.0 | 0.0 | 0.00 | 0.00 | 0.00 | 76 | 1069.8 |
| 20260906031718 | 13 | 292 | 0.0 | 0.0 | 0.00 | 0.00 | 0.00 | 76 | 1069.8 |
| 20260906031558 | 13 | 315 | 0.0 | 0.0 | 0.00 | 0.00 | 0.00 | 76 | 1069.8 |
| 20260906031444 | 13 | 292 | 0.0 | 0.0 | 0.00 | 0.00 | 0.00 | 76 | 1069.8 |
| 20260906031332 | 13 | 315 | 0.0 | 0.0 | 0.00 | 0.00 | 0.00 | 76 | 1069.8 |
| 20260906031218 | 13 | 292 | 0.0 | 0.0 | 0.00 | 0.00 | 0.00 | 76 | 1069.8 |
| 20260906031105 | 13 | 315 | 0.0 | 0.0 | 0.00 | 0.00 | 0.00 | 76 | 1069.8 |
| 20260906031000 | 13 | 315 | 0.0 | 0.0 | 0.00 | 0.00 | 0.00 | 76 | 1069.8 |
| 20260906030839 | 13 | 270 | 0.0 | 0.0 | 0.00 | 0.00 | 0.00 | 76 | 1069.8 |
| 20260906030719 | 13 | 337 | 0.0 | 0.0 | 0.00 | 0.00 | 0.00 | 75 | 1069.8 |
| 20260906030612 | 13 | 315 | 0.0 | 0.0 | 0.00 | 0.00 | 0.00 | 75 | 1069.8 |
| 20260906030501 | 13 | 292 | 0.0 | 0.0 | 0.00 | 0.00 | 0.00 | 75 | 1069.8 |
| 20260906030346 | 13 | 292 | 0.0 | 0.0 | 0.00 | 0.00 | 0.00 | 75 | 1069.8 |
| 20260906030226 | 13 | 315 | 0.0 | 0.0 | 0.00 | 0.00 | 0.00 | 75 | 1069.8 |
| 20260906030111 | 13 | 315 | 0.0 | 0.0 | 0.00 | 0.00 | 0.00 | 75 | 1069.8 |
| 20260906025953 | 13 | 292 | 0.0 | 0.0 | 0.00 | 0.00 | 0.00 | 75 | 1069.8 |
| 20260906025846 | 13 | 292 | 0.0 | 0.0 | 0.00 | 0.00 | 0.00 | 75 | 1069.8 |
| 20260906025732 | 13 | 292 | 0.0 | 0.0 | 0.00 | 0.00 | 0.00 | 75 | 1069.8 |
| 20260906025618 | 13 | 315 | 0.0 | 0.0 | 0.00 | 0.00 | 0.00 | 75 | 1069.8 |
| 20260906025434 | 13 | 315 | 0.0 | 0.0 | 0.00 | 0.00 | 0.00 | 75 | 1069.8 |
| 20260906025321 | 13 | 315 | 0.0 | 0.0 | 0.00 | 0.00 | 0.00 | 75 | 1069.7 |
| 20260906025210 | 14 | 337 | 0.0 | 0.0 | 0.00 | 0.00 | 0.00 | 74 | 1069.9 |
| 20260906025101 | 14 | 270 | 0.0 | 0.0 | 0.00 | 0.00 | 0.00 | 74 | 1069.8 |
| 20260906024941 | 14 | 315 | 0.0 | 0.0 | 0.00 | 0.00 | 0.00 | 74 | 1069.7 |
| 20260906024828 | 14 | 315 | 0.0 | 0.0 | 0.00 | 0.00 | 0.00 | 74 | 1069.8 |
| 20260906024715 | 14 | 315 | 0.0 | 0.0 | 0.00 | 0.00 | 0.00 | 74 | 1069.8 |
| 20260906024602 | 14 | 337 | 0.0 | 0.0 | 0.00 | 0.00 | 0.00 | 74 | 1069.8 |
| 20260906024449 | 14 | 292 | 0.0 | 0.0 | 0.00 | 0.00 | 0.00 | 74 | 1069.8 |
| 20260906024338 | 14 | 292 | 0.0 | 0.0 | 0.00 | 0.00 | 0.00 | 74 | 1069.8 |
| 20260906024233 | 14 | 315 | 0.0 | 0.0 | 0.00 | 0.00 | 0.00 | 74 | 1069.8 |
| 20260906024117 | 14 | 315 | 0.0 | 0.0 | 0.00 | 0.00 | 0.00 | 74 | 1069.8 |
| 20260906023948 | 14 | 292 | 6.4 | 0.0 | 0.00 | 0.00 | 0.00 | 74 | 1069.8 |
| 20260906023835 | 14 | 315 | 0.0 | 0.0 | 0.00 | 0.00 | 0.00 | 74 | 1069.8 |
| 20260906023721 | 14 | 315 | 0.0 | 0.0 | 0.00 | 0.00 | 0.00 | 74 | 1069.8 |
| 20260906023610 | 14 | 292 | 0.0 | 0.0 | 0.00 | 0.00 | 0.00 | 74 | 1069.8 |
| 20260906023506 | 14 | 292 | 0.0 | 0.0 | 0.00 | 0.00 | 0.00 | 74 | 1069.8 |
| 20260906023401 | 14 | 315 | 0.0 | 0.0 | 0.00 | 0.00 | 0.00 | 74 | 1069.8 |
| 20260906023253 | 14 | 315 | 0.0 | 0.0 | 0.00 | 0.00 | 0.00 | 74 | 1069.8 |
| 20260906023133 | 14 | 292 | 6.4 | 0.0 | 0.00 | 0.00 | 0.00 | 74 | 1069.7 |
| 20260906023027 | 14 | 292 | 0.0 | 0.0 | 0.00 | 0.00 | 0.00 | 74 | 1069.8 |
| 20260906022915 | 14 | 315 | 0.0 | 0.0 | 0.00 | 0.00 | 0.00 | 74 | 1069.8 |
| 20260906022812 | 14 | 292 | 0.0 | 0.0 | 0.00 | 0.00 | 0.00 | 74 | 1069.8 |
| 20260906022656 | 14 | 0 | 8.0 | 0.0 | 0.00 | 0.00 | 0.00 | 74 | 1069.8 |
| 20260906022543 | 14 | 315 | 0.0 | 0.0 | 0.00 | 0.00 | 0.00 | 73 | 1069.8 |
| 20260906022430 | 14 | 315 | 0.0 | 0.0 | 0.00 | 0.00 | 0.00 | 73 | 1069.8 |
| 20260906022326 | 14 | 315 | 0.0 | 0.0 | 0.00 | 0.00 | 0.00 | 73 | 1069.8 |
| 20260906022214 | 14 | 270 | 0.0 | 0.0 | 0.00 | 0.00 | 0.00 | 73 | 1069.9 |
| 20260906022106 | 14 | 292 | 0.0 | 0.0 | 0.00 | 0.00 | 0.00 | 72 | 1069.9 |
| 20260906021948 | 14 | 292 | 0.0 | 0.0 | 0.00 | 0.00 | 0.00 | 72 | 1069.9 |
| 20260906021843 | 14 | 292 | 0.0 | 0.0 | 0.00 | 0.00 | 0.00 | 72 | 1069.9 |
| 20260906021737 | 14 | 292 | 0.0 | 0.0 | 0.00 | 0.00 | 0.00 | 72 | 1069.8 |
| 20260906021631 | 14 | 315 | 0.0 | 0.0 | 0.00 | 0.00 | 0.00 | 72 | 1069.8 |
| 20260906021519 | 14 | 315 | 0.0 | 0.0 | 0.00 | 0.00 | 0.00 | 72 | 1069.8 |
| 20260906021412 | 14 | 315 | 0.0 | 0.0 | 0.00 | 0.00 | 0.00 | 72 | 1069.9 |
| 20260906021259 | 14 | 315 | 0.0 | 0.0 | 0.00 | 0.00 | 0.00 | 72 | 1069.9 |
| 20260906021138 | 14 | 337 | 0.0 | 0.0 | 0.00 | 0.00 | 0.00 | 72 | 1069.9 |
| 20260906021025 | 14 | 315 | 0.0 | 0.0 | 0.00 | 0.00 | 0.00 | 72 | 1070.0 |
| 20260906020906 | 14 | 315 | 0.0 | 0.0 | 0.00 | 0.00 | 0.00 | 72 | 1069.9 |
| 20260906020758 | 15 | 315 | 0.0 | 0.0 | 0.00 | 0.00 | 0.00 | 72 | 1069.9 |
| 20260906020635 | 15 | 0 | 0.0 | 0.0 | 0.00 | 0.00 | 0.00 | 72 | 1069.9 |
| 20260906020522 | 15 | 315 | 0.0 | 0.0 | 0.00 | 0.00 | 0.00 | 72 | 1069.9 |
| 20260906020418 | 15 | 315 | 0.0 | 0.0 | 0.00 | 0.00 | 0.00 | 72 | 1069.9 |
| 20260906020309 | 15 | 315 | 6.4 | 0.0 | 0.00 | 0.00 | 0.00 | 72 | 1069.9 |
| 20260906020149 | 14 | 22 | 0.0 | 0.0 | 0.00 | 0.00 | 0.00 | 72 | 1069.9 |
| 20260906020038 | 14 | 292 | 9.7 | 0.0 | 0.00 | 0.00 | 0.00 | 72 | 1069.9 |
| 20260906015922 | 14 | 315 | 3.2 | 0.0 | 0.00 | 0.00 | 0.00 | 72 | 1070.0 |
| 20260906015809 | 14 | 337 | 0.0 | 0.0 | 0.00 | 0.00 | 0.00 | 72 | 1069.9 |
| 20260906015658 | 14 | 315 | 0.0 | 0.0 | 0.00 | 0.00 | 0.00 | 72 | 1069.9 |
| 20260906015551 | 14 | 315 | 0.0 | 0.0 | 0.00 | 0.00 | 0.00 | 72 | 1069.9 |
| 20260906015421 | 14 | 292 | 0.0 | 0.0 | 0.00 | 0.00 | 0.00 | 73 | 1069.9 |
| 20260906015305 | 14 | 315 | 0.0 | 0.0 | 0.00 | 0.00 | 0.00 | 73 | 1069.9 |
| 20260906015155 | 14 | 292 | 0.0 | 0.0 | 0.00 | 0.00 | 0.00 | 73 | 1069.9 |
| 20260906015042 | 14 | 315 | 0.0 | 0.0 | 0.00 | 0.00 | 0.00 | 73 | 1069.9 |
| 20260906014922 | 14 | 337 | 0.0 | 0.0 | 0.00 | 0.00 | 0.00 | 72 | 1069.9 |
| 20260906014817 | 14 | 315 | 0.0 | 0.0 | 0.00 | 0.00 | 0.00 | 72 | 1069.9 |
| 20260906014711 | 14 | 315 | 0.0 | 0.0 | 0.00 | 0.00 | 0.00 | 72 | 1069.9 |
| 20260906014558 | 14 | 270 | 0.0 | 0.0 | 0.00 | 0.00 | 0.00 | 72 | 1069.9 |
| 20260906014452 | 14 | 270 | 0.0 | 0.0 | 0.00 | 0.00 | 0.00 | 72 | 1069.9 |
| 20260906014325 | 14 | 315 | 0.0 | 0.0 | 0.00 | 0.00 | 0.00 | 72 | 1069.9 |
| 20260906014219 | 14 | 315 | 0.0 | 0.0 | 0.00 | 0.00 | 0.00 | 72 | 1069.9 |
| 20260906014111 | 14 | 315 | 0.0 | 0.0 | 0.00 | 0.00 | 0.00 | 71 | 1069.9 |
| 20260906013957 | 14 | 0 | 0.0 | 0.0 | 0.00 | 0.00 | 0.00 | 71 | 1069.9 |
| 20260906013851 | 15 | 315 | 0.0 | 0.0 | 0.00 | 0.00 | 0.00 | 71 | 1069.9 |
| 20260906013731 | 15 | 0 | 0.0 | 0.0 | 0.00 | 0.00 | 0.00 | 71 | 1069.9 |
| 20260906013625 | 15 | 315 | 0.0 | 0.0 | 0.00 | 0.00 | 0.00 | 71 | 1069.9 |
| 20260906013512 | 15 | 270 | 4.8 | 0.0 | 0.00 | 0.00 | 0.00 | 71 | 1069.9 |
| 20260906013352 | 15 | 315 | 0.0 | 0.0 | 0.00 | 0.00 | 0.00 | 71 | 1069.9 |
| 20260906013240 | 15 | 315 | 0.0 | 0.0 | 0.00 | 0.00 | 0.00 | 71 | 1069.9 |
| 20260906013125 | 15 | 315 | 0.0 | 0.0 | 0.00 | 0.00 | 0.00 | 71 | 1069.9 |
| 20260906013012 | 15 | 0 | 0.0 | 0.0 | 0.00 | 0.00 | 0.00 | 71 | 1069.9 |
| 20260906012905 | 15 | 315 | 11.3 | 0.0 | 0.00 | 0.00 | 0.00 | 71 | 1069.8 |
| 20260906012754 | 15 | 292 | 0.0 | 0.0 | 0.00 | 0.00 | 0.00 | 71 | 1070.0 |
| 20260906012640 | 14 | 292 | 6.4 | 0.0 | 0.00 | 0.00 | 0.00 | 71 | 1069.8 |
| 20260906012518 | 14 | 0 | 0.0 | 0.0 | 0.00 | 0.00 | 0.00 | 71 | 1069.9 |
| 20260906012405 | 14 | 292 | 0.0 | 0.0 | 0.00 | 0.00 | 0.00 | 71 | 1069.9 |
| 20260906012259 | 14 | 315 | 0.0 | 0.0 | 0.00 | 0.00 | 0.00 | 72 | 1069.9 |
| 20260906012143 | 14 | 315 | 0.0 | 0.0 | 0.00 | 0.00 | 0.00 | 72 | 1069.9 |
| 20260906012032 | 14 | 292 | 9.7 | 0.0 | 0.00 | 0.00 | 0.00 | 72 | 1069.9 |
| 20260906011918 | 14 | 270 | 8.0 | 0.0 | 0.00 | 0.00 | 0.00 | 72 | 1069.8 |
| 20260906011750 | 14 | 337 | 0.0 | 0.0 | 0.00 | 0.00 | 0.00 | 72 | 1069.8 |
| 20260906011647 | 14 | 315 | 0.0 | 0.0 | 0.00 | 0.00 | 0.00 | 72 | 1069.8 |
| 20260906011539 | 14 | 270 | 8.0 | 0.0 | 0.00 | 0.00 | 0.00 | 72 | 1069.9 |
| 20260906011426 | 14 | 292 | 14.5 | 0.0 | 0.00 | 0.00 | 0.00 | 72 | 1069.9 |
| 20260906011321 | 14 | 337 | 0.0 | 0.0 | 0.00 | 0.00 | 0.00 | 72 | 1069.9 |
| 20260906011208 | 14 | 337 | 0.0 | 0.0 | 0.00 | 0.00 | 0.00 | 72 | 1069.9 |
| 20260906011055 | 14 | 292 | 0.0 | 0.0 | 0.00 | 0.00 | 0.00 | 72 | 1069.8 |
| 20260906010941 | 14 | 315 | 9.7 | 0.0 | 0.00 | 0.00 | 0.00 | 72 | 1069.9 |
| 20260906010828 | 14 | 315 | 3.2 | 0.0 | 0.00 | 0.00 | 0.00 | 72 | 1069.8 |
| 20260906010715 | 14 | 292 | 0.0 | 0.0 | 0.00 | 0.00 | 0.00 | 72 | 1069.8 |
| 20260906010602 | 14 | 292 | 3.2 | 0.0 | 0.00 | 0.00 | 0.00 | 72 | 1069.8 |
| 20260906010457 | 14 | 292 | 0.0 | 0.0 | 0.00 | 0.00 | 0.00 | 71 | 1069.8 |
| 20260906010336 | 14 | 337 | 0.0 | 0.0 | 0.00 | 0.00 | 0.00 | 71 | 1069.8 |
| 20260906005900 | 14 | 337 | 3.2 | 0.0 | 0.00 | 0.00 | 0.00 | 72 | 1069.7 |
| 20260906005737 | 14 | 315 | 0.0 | 0.0 | 0.00 | 0.00 | 0.00 | 72 | 1069.7 |
| 20260906005615 | 14 | 315 | 0.0 | 0.0 | 0.00 | 0.00 | 0.00 | 71 | 1069.8 |
| 20260906005454 | 14 | 315 | 0.0 | 0.0 | 0.00 | 0.00 | 0.00 | 71 | 1069.7 |
| 20260906005332 | 14 | 315 | 6.4 | 0.0 | 0.00 | 0.00 | 0.00 | 71 | 1069.7 |
| 20260906005226 | 14 | 270 | 0.0 | 0.0 | 0.00 | 0.00 | 0.00 | 71 | 1069.7 |
| 20260906005114 | 14 | 315 | 0.0 | 0.0 | 0.00 | 0.00 | 0.00 | 71 | 1069.6 |
| 20260906005008 | 14 | 337 | 0.0 | 0.0 | 0.00 | 0.00 | 0.00 | 71 | 1069.6 |
| 20260906004855 | 15 | 337 | 0.0 | 0.0 | 0.00 | 0.00 | 0.00 | 71 | 1069.6 |
| 20260906004744 | 15 | 315 | 0.0 | 0.0 | 0.00 | 0.00 | 0.00 | 71 | 1069.6 |
| 20260906004639 | 15 | 292 | 0.0 | 0.0 | 0.00 | 0.00 | 0.00 | 71 | 1069.6 |
| 20260906004524 | 15 | 337 | 0.0 | 0.0 | 0.00 | 0.00 | 0.00 | 71 | 1069.6 |
| 20260906004411 | 15 | 315 | 0.0 | 0.0 | 0.00 | 0.00 | 0.00 | 71 | 1069.7 |
| 20260906004305 | 14 | 315 | 0.0 | 0.0 | 0.00 | 0.00 | 0.00 | 71 | 1069.7 |
| 20260906004152 | 14 | 337 | 0.0 | 0.0 | 0.00 | 0.00 | 0.00 | 71 | 1069.6 |
| 20260906004022 | 15 | 315 | 4.8 | 0.0 | 0.00 | 0.00 | 0.00 | 72 | 1069.6 |
| 20260906003859 | 15 | 315 | 0.0 | 0.0 | 0.00 | 0.00 | 0.00 | 72 | 1069.6 |
| 20260906003741 | 15 | 337 | 0.0 | 0.0 | 0.00 | 0.00 | 0.00 | 72 | 1069.6 |
| 20260906003625 | 15 | 315 | 6.4 | 0.0 | 0.00 | 0.00 | 0.00 | 72 | 1069.7 |
| 20260906003519 | 15 | 337 | 0.0 | 0.0 | 0.00 | 0.00 | 0.00 | 72 | 1069.7 |
| 20260906003413 | 15 | 337 | 0.0 | 0.0 | 0.00 | 0.00 | 0.00 | 72 | 1069.7 |
| 20260906003308 | 15 | 337 | 0.0 | 0.0 | 0.00 | 0.00 | 0.00 | 72 | 1069.6 |
| 20260906003203 | 15 | 315 | 0.0 | 0.0 | 0.00 | 0.00 | 0.00 | 72 | 1069.6 |
| 20260906003057 | 15 | 337 | 0.0 | 0.0 | 0.00 | 0.00 | 0.00 | 72 | 1069.6 |
| 20260906002944 | 15 | 337 | 0.0 | 0.0 | 0.00 | 0.00 | 0.00 | 72 | 1069.6 |
| 20260906002823 | 15 | 292 | 0.0 | 0.0 | 0.00 | 0.00 | 0.00 | 72 | 1069.6 |
| 20260906002709 | 15 | 315 | 9.7 | 0.0 | 0.00 | 0.00 | 0.00 | 72 | 1069.6 |
| 20260906002559 | 15 | 315 | 0.0 | 0.0 | 0.00 | 0.00 | 0.00 | 72 | 1069.6 |
| 20260906002452 | 15 | 315 | 0.0 | 0.0 | 0.00 | 0.00 | 0.00 | 72 | 1069.6 |
| 20260906002338 | 15 | 337 | 0.0 | 0.0 | 0.00 | 0.00 | 0.00 | 72 | 1069.6 |
| 20260906002208 | 15 | 315 | 8.0 | 0.0 | 0.00 | 0.00 | 0.00 | 72 | 1069.6 |
| 20260906002046 | 15 | 315 | 9.7 | 0.0 | 0.00 | 0.00 | 0.00 | 72 | 1069.6 |
| 20260906001932 | 14 | 0 | 14.5 | 0.0 | 0.00 | 0.00 | 0.00 | 72 | 1069.5 |
| 20260906001826 | 14 | 292 | 6.4 | 0.0 | 0.00 | 0.00 | 0.00 | 73 | 1069.4 |
| 20260906001705 | 14 | 337 | 4.8 | 0.0 | 0.00 | 0.00 | 0.00 | 74 | 1069.4 |
| 20260906001545 | 14 | 337 | 0.0 | 0.0 | 0.00 | 0.00 | 0.00 | 74 | 1069.4 |
| 20260906001431 | 14 | 0 | 0.0 | 0.0 | 0.00 | 0.00 | 0.00 | 74 | 1069.5 |
| 20260906001302 | 14 | 292 | 0.0 | 0.0 | 0.00 | 0.00 | 0.00 | 74 | 1069.4 |
| 20260906001150 | 14 | 337 | 0.0 | 0.0 | 0.00 | 0.00 | 0.00 | 74 | 1069.4 |
| 20260906001035 | 14 | 337 | 11.3 | 0.0 | 0.00 | 0.00 | 0.00 | 74 | 1069.4 |
| 20260906000908 | 14 | 315 | 0.0 | 0.0 | 0.00 | 0.00 | 0.00 | 75 | 1069.4 |
| 20260906000753 | 14 | 315 | 0.0 | 0.0 | 0.00 | 0.00 | 0.00 | 75 | 1069.5 |
| 20260906000640 | 14 | 270 | 0.0 | 0.0 | 0.00 | 0.00 | 0.00 | 75 | 1069.4 |
| 20260906000527 | 14 | 0 | 0.0 | 0.0 | 0.00 | 0.00 | 0.00 | 75 | 1069.5 |
| 20260906000422 | 14 | 315 | 0.0 | 0.0 | 0.00 | 0.00 | 0.00 | 75 | 1069.5 |
| 20260906000311 | 14 | 337 | 0.0 | 0.0 | 0.00 | 0.00 | 0.00 | 74 | 1069.4 |
| 20260906000147 | 14 | 292 | 0.0 | 0.0 | 0.00 | 0.00 | 0.00 | 74 | 1069.5 |
| 20260906000026 | 14 | 292 | 0.0 | 0.0 | 0.00 | 0.00 | 0.00 | 74 | 1069.4 |
| 20260905235905 | 14 | 292 | 0.0 | 0.0 | 0.00 | 0.00 | 0.00 | 74 | 1069.4 |
| 20260905235800 | 14 | 292 | 0.0 | 0.0 | 0.00 | 0.00 | 0.00 | 74 | 1069.4 |
| 20260905235647 | 14 | 292 | 0.0 | 0.0 | 0.00 | 0.00 | 0.00 | 74 | 1069.4 |
| 20260905235543 | 14 | 315 | 0.0 | 0.0 | 0.00 | 0.00 | 0.00 | 73 | 1069.4 |
| 20260905235436 | 14 | 315 | 0.0 | 0.0 | 0.00 | 0.00 | 0.00 | 73 | 1069.5 |
| 20260905235325 | 14 | 315 | 4.8 | 0.0 | 0.00 | 0.00 | 0.00 | 73 | 1069.4 |
| 20260905235218 | 14 | 315 | 6.4 | 0.0 | 0.00 | 0.00 | 0.00 | 72 | 1069.4 |
| 20260905235057 | 14 | 337 | 8.0 | 0.0 | 0.00 | 0.00 | 0.00 | 72 | 1069.4 |